| time (UTC) | temp F | wind direction | speed knots | gust knots | rain 1hr in | rain 24hr in | rain mn in | humidity % | barometer mb |
| 20260506051303 | 40 | 80 | 6.1 | 12.2 | 0.00 | 0.00 | 0.00 | 84 | 1004.8 |
| 20260506051203 | 40 | 82 | 6.1 | 12.2 | 0.00 | 0.00 | 0.00 | 84 | 1004.6 |
| 20260506051103 | 40 | 83 | 6.1 | 12.2 | 0.00 | 0.00 | 0.00 | 84 | 1004.6 |
| 20260506051004 | 40 | 82 | 6.1 | 12.2 | 0.00 | 0.00 | 0.00 | 84 | 1004.7 |
| 20260506050903 | 40 | 84 | 6.1 | 9.6 | 0.00 | 0.00 | 0.00 | 84 | 1004.6 |
| 20260506050804 | 40 | 82 | 6.1 | 9.6 | 0.00 | 0.00 | 0.00 | 84 | 1004.4 |
| 20260506050725 | 40 | 82 | 5.2 | 9.6 | 0.00 | 0.00 | 0.00 | 84 | 1004.7 |
| 20260506050604 | 40 | 82 | 5.2 | 7.8 | 0.00 | 0.00 | 0.00 | 85 | 1004.8 |
| 20260506050504 | 40 | 82 | 5.2 | 7.8 | 0.00 | 0.00 | 0.00 | 85 | 1004.7 |
| 20260506050404 | 40 | 82 | 5.2 | 7.8 | 0.00 | 0.00 | 0.00 | 85 | 1004.7 |
| 20260506050324 | 40 | 82 | 5.2 | 7.8 | 0.00 | 0.00 | 0.00 | 85 | 1004.7 |
| 20260506050203 | 40 | 81 | 5.2 | 7.8 | 0.00 | 0.00 | 0.00 | 84 | 1004.8 |
| 20260506050125 | 40 | 80 | 4.3 | 7.8 | 0.00 | 0.00 | 0.00 | 85 | 1004.6 |
| 20260506045104 | 40 | 79 | 5.2 | 7.8 | 0.00 | 0.00 | 0.00 | 85 | 1004.5 |
| 20260506045003 | 40 | 78 | 5.2 | 7.8 | 0.00 | 0.00 | 0.00 | 85 | 1004.6 |
| 20260506044904 | 40 | 78 | 5.2 | 7.8 | 0.00 | 0.00 | 0.00 | 85 | 1004.7 |
| 20260506044804 | 39 | 78 | 5.2 | 7.8 | 0.00 | 0.00 | 0.00 | 86 | 1004.8 |
| 20260506044703 | 39 | 77 | 4.3 | 7.0 | 0.00 | 0.00 | 0.00 | 87 | 1004.8 |
| 20260506044604 | 39 | 78 | 4.3 | 7.0 | 0.00 | 0.00 | 0.00 | 87 | 1004.5 |
| 20260506044525 | 39 | 78 | 4.3 | 7.0 | 0.00 | 0.00 | 0.00 | 87 | 1004.4 |
| 20260506044403 | 39 | 77 | 4.3 | 7.0 | 0.00 | 0.00 | 0.00 | 88 | 1004.7 |
| 20260506044304 | 39 | 78 | 4.3 | 8.7 | 0.00 | 0.00 | 0.00 | 88 | 1004.6 |
| 20260506044204 | 39 | 80 | 4.3 | 8.7 | 0.00 | 0.00 | 0.00 | 88 | 1004.7 |
| 20260506044104 | 39 | 79 | 4.3 | 8.7 | 0.00 | 0.00 | 0.00 | 88 | 1004.7 |
| 20260506044003 | 39 | 80 | 5.2 | 8.7 | 0.00 | 0.00 | 0.00 | 88 | 1004.8 |
| 20260506043904 | 39 | 80 | 5.2 | 8.7 | 0.00 | 0.00 | 0.00 | 88 | 1004.6 |
| 20260506043804 | 40 | 79 | 5.2 | 8.7 | 0.00 | 0.00 | 0.00 | 87 | 1004.7 |
| 20260506043703 | 40 | 80 | 5.2 | 8.7 | 0.00 | 0.00 | 0.00 | 87 | 1004.7 |
| 20260506043604 | 40 | 81 | 4.3 | 8.7 | 0.00 | 0.00 | 0.00 | 87 | 1004.5 |
| 20260506043524 | 40 | 80 | 4.3 | 8.7 | 0.00 | 0.00 | 0.00 | 87 | 1004.7 |
| 20260506043404 | 40 | 81 | 4.3 | 8.7 | 0.00 | 0.00 | 0.00 | 87 | 1004.6 |
| 20260506043303 | 39 | 81 | 4.3 | 8.7 | 0.00 | 0.00 | 0.00 | 87 | 1004.6 |
| 20260506043204 | 39 | 79 | 4.3 | 6.1 | 0.00 | 0.00 | 0.00 | 88 | 1004.6 |
| 20260506043103 | 39 | 81 | 4.3 | 6.1 | 0.00 | 0.00 | 0.00 | 88 | 1004.6 |
| 20260506043004 | 39 | 81 | 3.5 | 6.1 | 0.00 | 0.00 | 0.00 | 88 | 1004.7 |
| 20260506042903 | 39 | 82 | 3.5 | 6.1 | 0.00 | 0.00 | 0.00 | 88 | 1004.6 |
| 20260506042804 | 39 | 84 | 3.5 | 6.1 | 0.00 | 0.00 | 0.00 | 88 | 1004.6 |
| 20260506042703 | 39 | 85 | 3.5 | 6.1 | 0.00 | 0.00 | 0.00 | 88 | 1004.8 |
| 20260506042604 | 39 | 85 | 3.5 | 6.1 | 0.00 | 0.00 | 0.00 | 88 | 1004.5 |
| 20260506042504 | 39 | 86 | 2.6 | 6.1 | 0.00 | 0.00 | 0.00 | 88 | 1004.6 |
| 20260506042404 | 39 | 87 | 2.6 | 6.1 | 0.00 | 0.00 | 0.00 | 88 | 1004.6 |
| 20260506042305 | 39 | 87 | 2.6 | 6.1 | 0.00 | 0.00 | 0.00 | 88 | 1004.6 |
| 20260506042225 | 39 | 90 | 2.6 | 6.1 | 0.00 | 0.00 | 0.00 | 88 | 1004.7 |
| 20260506042124 | 39 | 90 | 1.7 | 5.2 | 0.00 | 0.00 | 0.00 | 88 | 1004.7 |
| 20260506042003 | 39 | 92 | 1.7 | 3.5 | 0.00 | 0.00 | 0.00 | 88 | 1004.8 |
| 20260506041904 | 39 | 93 | 1.7 | 3.5 | 0.00 | 0.00 | 0.00 | 88 | 1004.7 |
| 20260506041803 | 39 | 93 | 1.7 | 3.5 | 0.00 | 0.00 | 0.00 | 88 | 1004.6 |
| 20260506041704 | 39 | 94 | 1.7 | 3.5 | 0.00 | 0.00 | 0.00 | 88 | 1004.6 |
| 20260506041604 | 39 | 94 | 1.7 | 5.2 | 0.00 | 0.00 | 0.00 | 89 | 1004.7 |
| 20260506041503 | 39 | 94 | 1.7 | 5.2 | 0.00 | 0.00 | 0.00 | 89 | 1004.8 |
| 20260506041403 | 39 | 94 | 1.7 | 5.2 | 0.00 | 0.00 | 0.00 | 89 | 1004.8 |
| 20260506041303 | 39 | 94 | 2.6 | 5.2 | 0.00 | 0.00 | 0.00 | 89 | 1004.7 |
| 20260506041204 | 39 | 92 | 2.6 | 5.2 | 0.00 | 0.00 | 0.00 | 89 | 1004.7 |
| 20260506041124 | 39 | 92 | 2.6 | 5.2 | 0.00 | 0.00 | 0.00 | 89 | 1004.7 |
| 20260506041003 | 39 | 89 | 2.6 | 5.2 | 0.00 | 0.00 | 0.00 | 89 | 1004.8 |
| 20260506040904 | 39 | 88 | 2.6 | 5.2 | 0.00 | 0.00 | 0.00 | 89 | 1004.6 |
| 20260506040803 | 39 | 88 | 2.6 | 5.2 | 0.00 | 0.00 | 0.00 | 89 | 1004.4 |
| 20260506040704 | 39 | 87 | 2.6 | 5.2 | 0.00 | 0.00 | 0.00 | 89 | 1004.8 |
| 20260506040603 | 39 | 87 | 2.6 | 5.2 | 0.00 | 0.00 | 0.00 | 89 | 1004.9 |
| 20260506040504 | 39 | 86 | 2.6 | 5.2 | 0.00 | 0.00 | 0.00 | 90 | 1004.7 |
| 20260506040403 | 39 | 85 | 2.6 | 5.2 | 0.00 | 0.00 | 0.00 | 90 | 1004.5 |
| 20260506040304 | 39 | 84 | 2.6 | 5.2 | 0.00 | 0.00 | 0.00 | 90 | 1004.7 |
| 20260506040204 | 39 | 83 | 2.6 | 5.2 | 0.00 | 0.00 | 0.00 | 90 | 1004.7 |
| 20260506040004 | 39 | 81 | 3.5 | 5.2 | 0.00 | 0.00 | 0.00 | 90 | 1004.6 |
| 20260506035904 | 39 | 80 | 3.5 | 6.1 | 0.00 | 0.00 | 0.00 | 90 | 1004.9 |
| 20260506035803 | 39 | 78 | 3.5 | 6.1 | 0.00 | 0.00 | 0.00 | 90 | 1004.6 |
| 20260506035703 | 39 | 79 | 3.5 | 6.1 | 0.00 | 0.00 | 0.00 | 90 | 1004.6 |
| 20260506035604 | 39 | 79 | 3.5 | 6.1 | 0.00 | 0.00 | 0.00 | 89 | 1004.8 |
| 20260506035503 | 39 | 79 | 3.5 | 6.1 | 0.00 | 0.00 | 0.00 | 89 | 1004.7 |
| 20260506035425 | 39 | 79 | 3.5 | 6.1 | 0.00 | 0.00 | 0.00 | 89 | 1004.8 |
| 20260506035306 | 40 | 79 | 3.5 | 6.1 | 0.00 | 0.00 | 0.00 | 89 | 1004.9 |
| 20260506035204 | 40 | 80 | 3.5 | 6.1 | 0.00 | 0.00 | 0.00 | 89 | 1004.6 |
| 20260506035103 | 40 | 81 | 3.5 | 6.1 | 0.00 | 0.00 | 0.00 | 89 | 1004.8 |
| 20260506035003 | 40 | 81 | 3.5 | 6.1 | 0.00 | 0.00 | 0.00 | 89 | 1004.7 |
| 20260506034904 | 40 | 83 | 3.5 | 6.1 | 0.00 | 0.00 | 0.00 | 89 | 1005.0 |
| 20260506034803 | 40 | 84 | 3.5 | 6.1 | 0.00 | 0.00 | 0.00 | 89 | 1004.8 |
| 20260506034724 | 40 | 83 | 3.5 | 6.1 | 0.00 | 0.00 | 0.00 | 89 | 1004.8 |
| 20260506034603 | 40 | 84 | 3.5 | 6.1 | 0.00 | 0.00 | 0.00 | 89 | 1004.9 |
| 20260506034503 | 40 | 84 | 3.5 | 6.1 | 0.00 | 0.00 | 0.00 | 89 | 1004.8 |
| 20260506034403 | 40 | 85 | 3.5 | 6.1 | 0.00 | 0.00 | 0.00 | 89 | 1004.8 |
| 20260506034304 | 40 | 85 | 3.5 | 6.1 | 0.00 | 0.00 | 0.00 | 89 | 1004.9 |
| 20260506034203 | 40 | 85 | 3.5 | 6.1 | 0.00 | 0.00 | 0.00 | 89 | 1004.9 |
| 20260506034103 | 40 | 84 | 3.5 | 6.1 | 0.00 | 0.00 | 0.00 | 89 | 1005.0 |
| 20260506034003 | 40 | 85 | 3.5 | 6.1 | 0.00 | 0.00 | 0.00 | 89 | 1005.0 |
| 20260506033904 | 40 | 84 | 3.5 | 6.1 | 0.00 | 0.00 | 0.00 | 89 | 1004.6 |
| 20260506033803 | 40 | 83 | 3.5 | 6.1 | 0.00 | 0.00 | 0.00 | 89 | 1004.9 |
| 20260506033704 | 40 | 83 | 3.5 | 6.1 | 0.00 | 0.00 | 0.00 | 89 | 1004.8 |
| 20260506033603 | 40 | 82 | 3.5 | 6.1 | 0.00 | 0.00 | 0.00 | 89 | 1005.0 |
| 20260506033504 | 40 | 81 | 3.5 | 6.1 | 0.00 | 0.00 | 0.00 | 89 | 1004.8 |
| 20260506033404 | 40 | 80 | 3.5 | 6.1 | 0.00 | 0.00 | 0.00 | 89 | 1004.8 |
| 20260506033324 | 40 | 80 | 3.5 | 5.2 | 0.00 | 0.00 | 0.00 | 89 | 1005.0 |
| 20260506033203 | 40 | 81 | 3.5 | 5.2 | 0.00 | 0.00 | 0.00 | 89 | 1005.0 |
| 20260506033103 | 40 | 79 | 3.5 | 5.2 | 0.00 | 0.00 | 0.00 | 89 | 1005.1 |
| 20260506033024 | 40 | 78 | 3.5 | 5.2 | 0.00 | 0.00 | 0.00 | 89 | 1004.8 |
| 20260506032903 | 40 | 79 | 3.5 | 5.2 | 0.00 | 0.00 | 0.00 | 89 | 1004.9 |
| 20260506032825 | 40 | 79 | 3.5 | 6.1 | 0.00 | 0.00 | 0.00 | 89 | 1004.9 |
| 20260506032703 | 40 | 79 | 3.5 | 7.0 | 0.00 | 0.00 | 0.00 | 88 | 1005.0 |
| 20260506032603 | 40 | 79 | 3.5 | 7.0 | 0.00 | 0.00 | 0.00 | 88 | 1005.0 |
| 20260506032525 | 40 | 78 | 3.5 | 7.0 | 0.00 | 0.00 | 0.00 | 88 | 1004.9 |
| 20260506032403 | 40 | 79 | 3.5 | 7.0 | 0.00 | 0.00 | 0.00 | 88 | 1005.2 |
| 20260506032305 | 40 | 79 | 4.3 | 7.0 | 0.00 | 0.00 | 0.00 | 88 | 1005.0 |
| 20260506032203 | 40 | 80 | 4.3 | 7.0 | 0.00 | 0.00 | 0.00 | 88 | 1005.0 |
| 20260506032103 | 40 | 80 | 4.3 | 7.0 | 0.00 | 0.00 | 0.00 | 88 | 1005.0 |
| 20260506032003 | 40 | 80 | 4.3 | 7.0 | 0.00 | 0.00 | 0.00 | 88 | 1005.0 |
| 20260506031903 | 40 | 79 | 4.3 | 7.0 | 0.00 | 0.00 | 0.00 | 88 | 1004.8 |
| 20260506031824 | 40 | 78 | 4.3 | 7.0 | 0.00 | 0.00 | 0.00 | 88 | 1004.9 |
| 20260506031704 | 40 | 78 | 4.3 | 7.0 | 0.00 | 0.00 | 0.00 | 88 | 1004.9 |
| 20260506031624 | 40 | 79 | 4.3 | 7.0 | 0.00 | 0.00 | 0.00 | 88 | 1004.9 |
| 20260506031504 | 40 | 78 | 4.3 | 7.0 | 0.00 | 0.00 | 0.00 | 88 | 1004.9 |
| 20260506031424 | 40 | 77 | 4.3 | 7.0 | 0.00 | 0.00 | 0.00 | 88 | 1004.9 |
| 20260506031303 | 40 | 76 | 4.3 | 7.0 | 0.00 | 0.00 | 0.00 | 87 | 1004.9 |
| 20260506031203 | 40 | 74 | 4.3 | 7.0 | 0.00 | 0.00 | 0.00 | 87 | 1004.9 |
| 20260506031103 | 40 | 73 | 4.3 | 7.0 | 0.00 | 0.00 | 0.00 | 87 | 1005.0 |
| 20260506031004 | 40 | 73 | 4.3 | 7.8 | 0.00 | 0.00 | 0.00 | 87 | 1004.9 |
| 20260506030904 | 40 | 73 | 4.3 | 7.8 | 0.00 | 0.00 | 0.00 | 87 | 1005.0 |
| 20260506030803 | 40 | 73 | 4.3 | 7.8 | 0.00 | 0.00 | 0.00 | 88 | 1004.7 |
| 20260506030703 | 40 | 74 | 4.3 | 7.8 | 0.00 | 0.00 | 0.00 | 88 | 1004.8 |
| 20260506030603 | 40 | 74 | 4.3 | 7.8 | 0.00 | 0.00 | 0.00 | 88 | 1004.8 |
| 20260506030504 | 40 | 74 | 4.3 | 7.8 | 0.00 | 0.00 | 0.00 | 88 | 1005.0 |
| 20260506030424 | 40 | 74 | 4.3 | 7.8 | 0.00 | 0.00 | 0.00 | 88 | 1004.8 |
| 20260506030304 | 40 | 75 | 4.3 | 7.8 | 0.00 | 0.00 | 0.00 | 88 | 1004.9 |
| 20260506030203 | 40 | 76 | 4.3 | 7.8 | 0.00 | 0.00 | 0.00 | 88 | 1004.8 |
| 20260506030103 | 40 | 76 | 4.3 | 7.8 | 0.00 | 0.00 | 0.00 | 88 | 1004.8 |
| 20260506030004 | 40 | 77 | 4.3 | 7.8 | 0.00 | 0.00 | 0.00 | 88 | 1005.0 |
| 20260506025903 | 40 | 78 | 4.3 | 7.8 | 0.00 | 0.00 | 0.00 | 88 | 1004.8 |
| 20260506025803 | 40 | 78 | 4.3 | 7.0 | 0.00 | 0.00 | 0.00 | 88 | 1004.9 |
| 20260506025703 | 40 | 78 | 4.3 | 7.0 | 0.00 | 0.00 | 0.00 | 88 | 1004.7 |
| 20260506025603 | 40 | 78 | 4.3 | 7.0 | 0.00 | 0.00 | 0.00 | 88 | 1004.8 |
| 20260506025503 | 40 | 78 | 4.3 | 7.0 | 0.00 | 0.00 | 0.00 | 88 | 1004.8 |
| 20260506025403 | 40 | 79 | 4.3 | 7.0 | 0.00 | 0.00 | 0.00 | 89 | 1005.0 |
| 20260506025305 | 40 | 79 | 4.3 | 6.1 | 0.00 | 0.00 | 0.00 | 89 | 1004.9 |
| 20260506025203 | 40 | 79 | 4.3 | 6.1 | 0.00 | 0.00 | 0.00 | 89 | 1005.1 |
| 20260506025124 | 40 | 79 | 4.3 | 6.1 | 0.00 | 0.00 | 0.00 | 89 | 1004.8 |
| 20260506025003 | 40 | 79 | 4.3 | 6.1 | 0.00 | 0.00 | 0.00 | 89 | 1005.0 |
| 20260506024903 | 40 | 78 | 4.3 | 6.1 | 0.00 | 0.00 | 0.00 | 89 | 1005.0 |
| 20260506024804 | 40 | 77 | 4.3 | 7.0 | 0.00 | 0.00 | 0.00 | 89 | 1004.8 |
| 20260506024703 | 40 | 77 | 4.3 | 7.0 | 0.00 | 0.00 | 0.00 | 89 | 1004.8 |
| 20260506024603 | 40 | 77 | 4.3 | 7.0 | 0.00 | 0.00 | 0.00 | 89 | 1004.7 |
| 20260506024503 | 40 | 77 | 4.3 | 7.0 | 0.00 | 0.00 | 0.00 | 89 | 1004.9 |
| 20260506024403 | 40 | 77 | 4.3 | 7.8 | 0.00 | 0.00 | 0.00 | 89 | 1004.8 |
| 20260506024303 | 40 | 76 | 4.3 | 7.8 | 0.00 | 0.00 | 0.00 | 90 | 1004.8 |
| 20260506024203 | 40 | 76 | 5.2 | 7.8 | 0.00 | 0.00 | 0.00 | 90 | 1004.8 |
| 20260506024103 | 40 | 77 | 5.2 | 7.8 | 0.00 | 0.00 | 0.00 | 90 | 1004.9 |
| 20260506024024 | 40 | 77 | 5.2 | 7.8 | 0.00 | 0.00 | 0.00 | 90 | 1004.8 |
| 20260506023903 | 40 | 77 | 5.2 | 7.8 | 0.00 | 0.00 | 0.00 | 90 | 1004.6 |
| 20260506023804 | 40 | 78 | 5.2 | 7.8 | 0.00 | 0.00 | 0.00 | 90 | 1004.8 |
| 20260506023703 | 40 | 78 | 5.2 | 7.8 | 0.00 | 0.00 | 0.00 | 90 | 1004.6 |
| 20260506023604 | 40 | 77 | 5.2 | 7.8 | 0.00 | 0.00 | 0.00 | 90 | 1004.9 |
| 20260506023503 | 40 | 78 | 5.2 | 7.8 | 0.00 | 0.00 | 0.00 | 90 | 1004.6 |
| 20260506023404 | 40 | 79 | 5.2 | 7.8 | 0.00 | 0.00 | 0.00 | 90 | 1004.8 |
| 20260506023303 | 40 | 80 | 5.2 | 7.8 | 0.00 | 0.00 | 0.00 | 90 | 1004.7 |
| 20260506023224 | 40 | 80 | 5.2 | 7.8 | 0.00 | 0.00 | 0.00 | 90 | 1004.7 |
| 20260506023103 | 40 | 80 | 5.2 | 7.8 | 0.00 | 0.00 | 0.00 | 89 | 1005.0 |
| 20260506023024 | 40 | 80 | 5.2 | 7.8 | 0.00 | 0.00 | 0.00 | 90 | 1004.6 |
| 20260506022903 | 40 | 79 | 5.2 | 7.8 | 0.00 | 0.00 | 0.00 | 89 | 1005.0 |
| 20260506022803 | 40 | 79 | 5.2 | 7.8 | 0.00 | 0.00 | 0.00 | 89 | 1004.9 |
| 20260506022703 | 40 | 78 | 5.2 | 8.7 | 0.00 | 0.00 | 0.00 | 89 | 1004.7 |
| 20260506022603 | 40 | 78 | 5.2 | 8.7 | 0.00 | 0.00 | 0.00 | 89 | 1004.8 |
| 20260506022504 | 40 | 78 | 5.2 | 8.7 | 0.00 | 0.00 | 0.00 | 89 | 1004.9 |
| 20260506022403 | 40 | 77 | 4.3 | 8.7 | 0.00 | 0.00 | 0.00 | 89 | 1004.9 |
| 20260506022305 | 40 | 76 | 4.3 | 8.7 | 0.00 | 0.00 | 0.00 | 89 | 1004.7 |
| 20260506022203 | 40 | 76 | 4.3 | 8.7 | 0.00 | 0.00 | 0.00 | 89 | 1004.9 |
| 20260506022104 | 40 | 76 | 4.3 | 8.7 | 0.00 | 0.00 | 0.00 | 89 | 1004.9 |
| 20260506022003 | 40 | 77 | 4.3 | 8.7 | 0.00 | 0.00 | 0.00 | 89 | 1004.8 |
| 20260506021903 | 40 | 78 | 4.3 | 8.7 | 0.00 | 0.00 | 0.00 | 89 | 1004.9 |
| 20260506021803 | 40 | 78 | 4.3 | 8.7 | 0.00 | 0.00 | 0.00 | 89 | 1004.9 |
| 20260506021704 | 40 | 80 | 4.3 | 8.7 | 0.00 | 0.00 | 0.00 | 89 | 1005.0 |
| 20260506021603 | 40 | 80 | 4.3 | 7.8 | 0.00 | 0.00 | 0.00 | 89 | 1005.0 |
| 20260506021503 | 40 | 80 | 4.3 | 7.8 | 0.00 | 0.00 | 0.00 | 89 | 1004.8 |
| 20260506021403 | 40 | 80 | 4.3 | 7.8 | 0.00 | 0.00 | 0.00 | 89 | 1004.7 |
| 20260506021303 | 40 | 79 | 4.3 | 7.8 | 0.00 | 0.00 | 0.00 | 89 | 1004.8 |
| 20260506021203 | 40 | 80 | 4.3 | 7.8 | 0.00 | 0.00 | 0.00 | 89 | 1004.9 |
| 20260506021103 | 40 | 78 | 5.2 | 7.8 | 0.00 | 0.00 | 0.00 | 89 | 1004.9 |
| 20260506021003 | 40 | 76 | 5.2 | 7.8 | 0.00 | 0.00 | 0.00 | 89 | 1005.0 |
| 20260506020924 | 40 | 75 | 4.3 | 7.8 | 0.00 | 0.00 | 0.00 | 89 | 1004.9 |
| 20260506020803 | 40 | 73 | 5.2 | 7.8 | 0.00 | 0.00 | 0.00 | 88 | 1004.9 |
| 20260506020703 | 40 | 70 | 4.3 | 7.8 | 0.00 | 0.00 | 0.00 | 88 | 1004.9 |
| 20260506020603 | 40 | 71 | 4.3 | 8.7 | 0.00 | 0.00 | 0.00 | 88 | 1005.0 |
| 20260506020503 | 40 | 70 | 4.3 | 8.7 | 0.00 | 0.00 | 0.00 | 88 | 1004.9 |
| 20260506020403 | 40 | 70 | 4.3 | 8.7 | 0.00 | 0.00 | 0.00 | 88 | 1005.0 |
| 20260506020303 | 40 | 69 | 4.3 | 8.7 | 0.00 | 0.00 | 0.00 | 88 | 1004.8 |
| 20260506020203 | 40 | 70 | 4.3 | 8.7 | 0.00 | 0.00 | 0.00 | 88 | 1004.8 |
| 20260506020104 | 40 | 69 | 4.3 | 8.7 | 0.00 | 0.00 | 0.00 | 88 | 1005.0 |
| 20260506020024 | 40 | 69 | 4.3 | 8.7 | 0.00 | 0.00 | 0.00 | 88 | 1004.9 |
| 20260506015903 | 40 | 71 | 4.3 | 8.7 | 0.00 | 0.00 | 0.00 | 88 | 1004.7 |
| 20260506015803 | 40 | 72 | 4.3 | 8.7 | 0.00 | 0.00 | 0.00 | 88 | 1005.0 |
| 20260506015724 | 40 | 73 | 4.3 | 8.7 | 0.00 | 0.00 | 0.00 | 88 | 1004.9 |
| 20260506015603 | 40 | 73 | 5.2 | 8.7 | 0.00 | 0.00 | 0.00 | 88 | 1004.8 |
| 20260506015525 | 40 | 73 | 5.2 | 8.7 | 0.00 | 0.00 | 0.00 | 88 | 1004.9 |
| 20260506015403 | 40 | 73 | 5.2 | 7.8 | 0.00 | 0.00 | 0.00 | 88 | 1005.0 |
| 20260506015305 | 40 | 75 | 5.2 | 7.8 | 0.00 | 0.00 | 0.00 | 88 | 1004.8 |
| 20260506015203 | 40 | 75 | 5.2 | 7.8 | 0.00 | 0.00 | 0.00 | 88 | 1004.7 |
| 20260506015103 | 40 | 75 | 4.3 | 7.8 | 0.00 | 0.00 | 0.00 | 88 | 1004.9 |
| 20260506015003 | 40 | 75 | 4.3 | 7.8 | 0.00 | 0.00 | 0.00 | 88 | 1004.9 |
| 20260506014903 | 40 | 74 | 4.3 | 6.1 | 0.00 | 0.00 | 0.00 | 89 | 1005.0 |
| 20260506014803 | 40 | 73 | 4.3 | 6.1 | 0.00 | 0.00 | 0.00 | 89 | 1004.9 |
| 20260506014724 | 40 | 72 | 3.5 | 6.1 | 0.00 | 0.00 | 0.00 | 89 | 1005.1 |
| 20260506014604 | 40 | 72 | 3.5 | 6.1 | 0.00 | 0.00 | 0.00 | 89 | 1004.7 |
| 20260506014503 | 40 | 73 | 3.5 | 6.1 | 0.00 | 0.00 | 0.00 | 89 | 1004.8 |
| 20260506014403 | 40 | 73 | 3.5 | 6.1 | 0.00 | 0.00 | 0.00 | 89 | 1004.8 |
| 20260506014303 | 40 | 72 | 3.5 | 6.1 | 0.00 | 0.00 | 0.00 | 89 | 1004.8 |
| 20260506014203 | 40 | 71 | 3.5 | 6.1 | 0.00 | 0.00 | 0.00 | 89 | 1004.8 |
| 20260506014103 | 40 | 72 | 3.5 | 6.1 | 0.00 | 0.00 | 0.00 | 90 | 1004.8 |
| 20260506014003 | 40 | 73 | 3.5 | 6.1 | 0.00 | 0.00 | 0.00 | 90 | 1004.9 |
| 20260506013903 | 40 | 72 | 3.5 | 6.1 | 0.00 | 0.00 | 0.00 | 90 | 1004.9 |
| 20260506013803 | 40 | 74 | 3.5 | 6.1 | 0.00 | 0.00 | 0.00 | 90 | 1004.8 |
| 20260506013703 | 40 | 74 | 3.5 | 6.1 | 0.00 | 0.00 | 0.00 | 90 | 1004.9 |
| 20260506013603 | 40 | 74 | 3.5 | 6.1 | 0.00 | 0.00 | 0.00 | 90 | 1004.8 |
| 20260506013503 | 40 | 74 | 3.5 | 6.1 | 0.00 | 0.00 | 0.00 | 90 | 1004.9 |
| 20260506013403 | 40 | 75 | 3.5 | 6.1 | 0.00 | 0.00 | 0.00 | 90 | 1004.7 |
| 20260506013304 | 40 | 75 | 3.5 | 6.1 | 0.00 | 0.00 | 0.00 | 90 | 1004.9 |
| 20260506013203 | 40 | 75 | 3.5 | 6.1 | 0.00 | 0.00 | 0.00 | 91 | 1005.0 |
| 20260506013124 | 40 | 77 | 3.5 | 6.1 | 0.00 | 0.00 | 0.00 | 91 | 1004.9 |
| 20260506013003 | 40 | 78 | 3.5 | 6.1 | 0.00 | 0.00 | 0.00 | 91 | 1005.0 |
| 20260506012903 | 39 | 79 | 2.6 | 6.1 | 0.00 | 0.00 | 0.00 | 91 | 1004.9 |
| 20260506012803 | 39 | 80 | 2.6 | 6.1 | 0.00 | 0.00 | 0.00 | 91 | 1004.8 |
| 20260506012724 | 39 | 80 | 3.5 | 6.1 | 0.00 | 0.00 | 0.00 | 91 | 1004.9 |
| 20260506012603 | 39 | 81 | 3.5 | 6.1 | 0.00 | 0.00 | 0.00 | 91 | 1005.0 |
| 20260506012503 | 39 | 80 | 3.5 | 6.1 | 0.00 | 0.00 | 0.00 | 91 | 1004.9 |
| 20260506012403 | 39 | 78 | 3.5 | 6.1 | 0.00 | 0.00 | 0.00 | 91 | 1005.1 |
| 20260506012307 | 39 | 78 | 3.5 | 7.0 | 0.00 | 0.00 | 0.00 | 91 | 1004.8 |
| 20260506012203 | 39 | 77 | 4.3 | 7.0 | 0.00 | 0.00 | 0.00 | 91 | 1004.9 |
| 20260506012103 | 39 | 76 | 4.3 | 7.0 | 0.00 | 0.00 | 0.00 | 91 | 1005.2 |
| 20260506012003 | 39 | 76 | 4.3 | 7.0 | 0.00 | 0.00 | 0.00 | 91 | 1004.9 |
| 20260506011903 | 40 | 75 | 4.3 | 7.0 | 0.00 | 0.00 | 0.00 | 90 | 1004.9 |
| 20260506011803 | 40 | 74 | 4.3 | 7.0 | 0.00 | 0.00 | 0.00 | 90 | 1005.1 |
| 20260506011703 | 40 | 73 | 4.3 | 7.0 | 0.00 | 0.00 | 0.00 | 90 | 1005.1 |
| 20260506011624 | 40 | 73 | 4.3 | 7.0 | 0.00 | 0.00 | 0.00 | 90 | 1004.8 |
| 20260506011504 | 40 | 73 | 3.5 | 7.0 | 0.00 | 0.00 | 0.00 | 90 | 1004.8 |
| 20260506011403 | 40 | 73 | 3.5 | 7.0 | 0.00 | 0.00 | 0.00 | 89 | 1005.0 |
| 20260506011303 | 40 | 72 | 3.5 | 7.0 | 0.00 | 0.00 | 0.00 | 89 | 1005.0 |
| 20260506011203 | 40 | 71 | 2.6 | 6.1 | 0.00 | 0.00 | 0.00 | 89 | 1005.1 |
| 20260506011125 | 40 | 71 | 2.6 | 6.1 | 0.00 | 0.00 | 0.00 | 89 | 1005.3 |
| 20260506011024 | 40 | 71 | 2.6 | 6.1 | 0.00 | 0.00 | 0.00 | 89 | 1005.1 |
| 20260506010903 | 40 | 70 | 2.6 | 6.1 | 0.00 | 0.00 | 0.00 | 89 | 1005.3 |
| 20260506010824 | 40 | 72 | 2.6 | 6.1 | 0.00 | 0.00 | 0.00 | 88 | 1005.1 |
| 20260506010703 | 40 | 72 | 2.6 | 3.5 | 0.00 | 0.00 | 0.00 | 89 | 1004.8 |
| 20260506010603 | 40 | 76 | 2.6 | 3.5 | 0.00 | 0.00 | 0.00 | 88 | 1004.9 |
| 20260506010503 | 40 | 77 | 2.6 | 3.5 | 0.00 | 0.00 | 0.00 | 88 | 1005.0 |
| 20260506010425 | 40 | 78 | 2.6 | 3.5 | 0.00 | 0.00 | 0.00 | 88 | 1004.9 |
| 20260506010303 | 40 | 80 | 2.6 | 3.5 | 0.00 | 0.00 | 0.00 | 88 | 1005.2 |
| 20260506010203 | 40 | 82 | 2.6 | 3.5 | 0.00 | 0.00 | 0.00 | 88 | 1004.8 |
| 20260506010103 | 40 | 85 | 2.6 | 3.5 | 0.00 | 0.00 | 0.00 | 88 | 1005.0 |
| 20260506010024 | 40 | 87 | 2.6 | 3.5 | 0.00 | 0.00 | 0.00 | 88 | 1005.1 |
| 20260506005903 | 40 | 91 | 2.6 | 3.5 | 0.00 | 0.00 | 0.00 | 88 | 1005.0 |
| 20260506005803 | 40 | 93 | 2.6 | 3.5 | 0.00 | 0.00 | 0.00 | 88 | 1005.1 |
| 20260506005703 | 40 | 95 | 2.6 | 3.5 | 0.00 | 0.00 | 0.00 | 88 | 1005.0 |
| 20260506005603 | 40 | 96 | 2.6 | 5.2 | 0.00 | 0.00 | 0.00 | 88 | 1005.1 |
| 20260506005503 | 40 | 97 | 2.6 | 5.2 | 0.00 | 0.00 | 0.00 | 88 | 1005.0 |
| 20260506005403 | 40 | 98 | 2.6 | 5.2 | 0.00 | 0.00 | 0.00 | 88 | 1005.1 |
| 20260506005324 | 40 | 98 | 2.6 | 5.2 | 0.00 | 0.00 | 0.00 | 88 | 1005.0 |
| 20260506005203 | 40 | 98 | 2.6 | 5.2 | 0.00 | 0.00 | 0.00 | 88 | 1004.8 |
| 20260506005103 | 40 | 97 | 2.6 | 5.2 | 0.00 | 0.00 | 0.00 | 88 | 1004.9 |
| 20260506005003 | 40 | 94 | 2.6 | 5.2 | 0.00 | 0.00 | 0.00 | 88 | 1004.8 |
| 20260506004903 | 40 | 91 | 2.6 | 5.2 | 0.00 | 0.00 | 0.00 | 88 | 1005.0 |
| 20260506004824 | 40 | 89 | 2.6 | 5.2 | 0.00 | 0.00 | 0.00 | 88 | 1005.0 |
| 20260506004704 | 40 | 88 | 2.6 | 5.2 | 0.00 | 0.00 | 0.00 | 88 | 1005.2 |
| 20260506004603 | 40 | 87 | 2.6 | 5.2 | 0.00 | 0.00 | 0.00 | 88 | 1004.9 |
| 20260506004504 | 40 | 86 | 2.6 | 5.2 | 0.00 | 0.00 | 0.00 | 88 | 1005.1 |
| 20260506004403 | 40 | 86 | 2.6 | 5.2 | 0.00 | 0.00 | 0.00 | 88 | 1005.1 |
| 20260506004303 | 40 | 89 | 2.6 | 5.2 | 0.00 | 0.00 | 0.00 | 88 | 1004.8 |
| 20260506004203 | 40 | 88 | 2.6 | 5.2 | 0.00 | 0.00 | 0.00 | 88 | 1005.1 |
| 20260506004104 | 40 | 89 | 2.6 | 5.2 | 0.00 | 0.00 | 0.00 | 87 | 1005.1 |
| 20260506004003 | 40 | 90 | 2.6 | 7.0 | 0.00 | 0.00 | 0.00 | 87 | 1005.0 |
| 20260506003903 | 40 | 92 | 2.6 | 7.0 | 0.00 | 0.00 | 0.00 | 87 | 1004.9 |
| 20260506003824 | 40 | 93 | 2.6 | 7.0 | 0.00 | 0.00 | 0.00 | 87 | 1005.1 |
| 20260506003703 | 40 | 94 | 2.6 | 7.0 | 0.00 | 0.00 | 0.00 | 87 | 1005.0 |
| 20260506003603 | 40 | 95 | 3.5 | 7.0 | 0.00 | 0.00 | 0.00 | 87 | 1005.0 |
| 20260506003503 | 40 | 94 | 3.5 | 7.0 | 0.00 | 0.00 | 0.00 | 87 | 1004.9 |
| 20260506003424 | 40 | 92 | 3.5 | 7.0 | 0.00 | 0.00 | 0.00 | 87 | 1005.0 |
| 20260506003303 | 40 | 91 | 3.5 | 7.8 | 0.00 | 0.00 | 0.00 | 87 | 1005.1 |
| 20260506003203 | 40 | 92 | 4.3 | 7.8 | 0.00 | 0.00 | 0.00 | 87 | 1004.9 |
| 20260506003103 | 41 | 90 | 4.3 | 7.8 | 0.00 | 0.00 | 0.00 | 87 | 1005.0 |
| 20260506003024 | 41 | 90 | 4.3 | 7.8 | 0.00 | 0.00 | 0.00 | 86 | 1005.1 |
| 20260506002903 | 41 | 89 | 4.3 | 8.7 | 0.00 | 0.00 | 0.00 | 87 | 1004.8 |
| 20260506002803 | 41 | 88 | 5.2 | 9.6 | 0.00 | 0.00 | 0.00 | 87 | 1005.0 |
| 20260506002704 | 41 | 88 | 5.2 | 9.6 | 0.00 | 0.00 | 0.00 | 86 | 1005.0 |
| 20260506002603 | 41 | 88 | 5.2 | 11.3 | 0.00 | 0.00 | 0.00 | 86 | 1005.0 |
| 20260506002503 | 41 | 88 | 5.2 | 11.3 | 0.00 | 0.00 | 0.00 | 86 | 1005.0 |
| 20260506002404 | 41 | 87 | 6.1 | 11.3 | 0.00 | 0.00 | 0.00 | 87 | 1005.2 |
| 20260506002324 | 41 | 86 | 6.1 | 11.3 | 0.00 | 0.00 | 0.00 | 87 | 1005.0 |
| 20260506002204 | 41 | 85 | 5.2 | 11.3 | 0.00 | 0.00 | 0.00 | 87 | 1005.0 |
| 20260506002103 | 41 | 86 | 6.1 | 11.3 | 0.00 | 0.00 | 0.00 | 87 | 1005.0 |
| 20260506002003 | 41 | 86 | 6.1 | 11.3 | 0.00 | 0.00 | 0.00 | 87 | 1004.9 |
| 20260506001924 | 41 | 87 | 6.1 | 11.3 | 0.00 | 0.00 | 0.00 | 87 | 1005.1 |
| 20260506001803 | 41 | 86 | 6.1 | 11.3 | 0.00 | 0.00 | 0.00 | 87 | 1004.8 |
| 20260506001704 | 41 | 85 | 6.1 | 11.3 | 0.00 | 0.00 | 0.00 | 87 | 1004.9 |
| 20260506001603 | 41 | 87 | 6.1 | 11.3 | 0.00 | 0.00 | 0.00 | 87 | 1004.9 |
| 20260506001524 | 41 | 87 | 6.1 | 9.6 | 0.00 | 0.00 | 0.00 | 87 | 1005.1 |
| 20260506001403 | 41 | 88 | 6.1 | 9.6 | 0.00 | 0.00 | 0.00 | 87 | 1004.9 |
| 20260506001303 | 41 | 89 | 6.1 | 9.6 | 0.00 | 0.00 | 0.00 | 87 | 1004.9 |
| 20260506001203 | 41 | 88 | 6.1 | 9.6 | 0.00 | 0.00 | 0.00 | 87 | 1004.8 |
| 20260506001103 | 41 | 89 | 6.1 | 9.6 | 0.00 | 0.00 | 0.00 | 87 | 1004.9 |
| 20260506001003 | 41 | 89 | 6.1 | 9.6 | 0.00 | 0.00 | 0.00 | 87 | 1004.7 |
| 20260506000903 | 41 | 88 | 6.1 | 9.6 | 0.00 | 0.00 | 0.00 | 87 | 1004.7 |
| 20260506000803 | 41 | 88 | 6.1 | 9.6 | 0.00 | 0.00 | 0.00 | 87 | 1004.9 |
| 20260506000703 | 41 | 88 | 6.1 | 9.6 | 0.00 | 0.00 | 0.00 | 87 | 1004.9 |
| 20260506000624 | 41 | 88 | 6.1 | 9.6 | 0.00 | 0.00 | 0.00 | 87 | 1004.8 |
| 20260506000503 | 41 | 87 | 6.1 | 9.6 | 0.00 | 0.00 | 0.00 | 87 | 1004.9 |
| 20260506000403 | 41 | 89 | 5.2 | 9.6 | 0.00 | 0.00 | 0.00 | 87 | 1004.8 |
| 20260506000303 | 41 | 89 | 6.1 | 9.6 | 0.00 | 0.00 | 0.00 | 87 | 1005.1 |
| 20260506000205 | 41 | 89 | 6.1 | 9.6 | 0.00 | 0.00 | 0.00 | 87 | 1004.9 |
| 20260506000004 | 41 | 88 | 6.1 | 9.6 | 0.00 | 0.00 | 0.00 | 87 | 1004.9 |
| 20260505235903 | 41 | 88 | 6.1 | 9.6 | 0.00 | 0.00 | 0.00 | 87 | 1005.0 |
| 20260505235804 | 41 | 89 | 6.1 | 9.6 | 0.00 | 0.00 | 0.00 | 87 | 1005.1 |
| 20260505235724 | 41 | 89 | 6.1 | 9.6 | 0.00 | 0.00 | 0.00 | 87 | 1004.8 |
| 20260505235624 | 41 | 87 | 6.1 | 9.6 | 0.00 | 0.00 | 0.00 | 87 | 1005.0 |
| 20260505235503 | 41 | 87 | 7.0 | 9.6 | 0.00 | 0.00 | 0.00 | 87 | 1004.9 |
| 20260505235403 | 41 | 84 | 7.0 | 9.6 | 0.00 | 0.00 | 0.00 | 87 | 1005.0 |
| 20260505235305 | 41 | 82 | 7.0 | 11.3 | 0.00 | 0.00 | 0.00 | 87 | 1004.9 |
| 20260505235203 | 41 | 81 | 7.0 | 12.2 | 0.00 | 0.00 | 0.00 | 88 | 1004.9 |
| 20260505235103 | 41 | 82 | 7.0 | 12.2 | 0.00 | 0.00 | 0.00 | 88 | 1005.0 |
| 20260505235003 | 41 | 83 | 7.0 | 12.2 | 0.00 | 0.00 | 0.00 | 88 | 1005.0 |
| 20260505234903 | 41 | 81 | 7.0 | 12.2 | 0.00 | 0.00 | 0.00 | 88 | 1005.1 |
| 20260505234803 | 41 | 80 | 7.0 | 12.2 | 0.00 | 0.00 | 0.00 | 88 | 1004.9 |
| 20260505234724 | 41 | 80 | 7.0 | 12.2 | 0.00 | 0.00 | 0.00 | 88 | 1005.0 |
| 20260505234603 | 41 | 80 | 7.8 | 12.2 | 0.00 | 0.00 | 0.00 | 87 | 1004.9 |
| 20260505234503 | 41 | 80 | 7.0 | 12.2 | 0.00 | 0.00 | 0.00 | 87 | 1004.9 |
| 20260505234403 | 41 | 81 | 7.0 | 12.2 | 0.00 | 0.00 | 0.00 | 87 | 1004.9 |
| 20260505234303 | 41 | 83 | 7.0 | 12.2 | 0.00 | 0.00 | 0.00 | 87 | 1005.1 |
| 20260505234224 | 41 | 83 | 7.0 | 12.2 | 0.00 | 0.00 | 0.00 | 87 | 1004.9 |
| 20260505234103 | 41 | 82 | 7.0 | 12.2 | 0.00 | 0.00 | 0.00 | 87 | 1004.9 |
| 20260505234003 | 41 | 81 | 7.0 | 12.2 | 0.00 | 0.00 | 0.00 | 87 | 1005.1 |
| 20260505233903 | 41 | 82 | 7.0 | 12.2 | 0.00 | 0.00 | 0.00 | 87 | 1004.9 |
| 20260505233803 | 41 | 82 | 7.0 | 12.2 | 0.00 | 0.00 | 0.00 | 87 | 1005.0 |
| 20260505233703 | 41 | 82 | 7.0 | 12.2 | 0.00 | 0.00 | 0.00 | 88 | 1005.0 |
| 20260505233603 | 41 | 82 | 7.0 | 12.2 | 0.00 | 0.00 | 0.00 | 88 | 1004.6 |
| 20260505233524 | 41 | 81 | 7.0 | 12.2 | 0.00 | 0.00 | 0.00 | 87 | 1005.0 |
| 20260505233403 | 41 | 80 | 7.0 | 12.2 | 0.00 | 0.00 | 0.00 | 87 | 1005.0 |
| 20260505233303 | 41 | 79 | 7.0 | 12.2 | 0.00 | 0.00 | 0.00 | 87 | 1004.9 |
| 20260505233203 | 41 | 79 | 7.0 | 12.2 | 0.00 | 0.00 | 0.00 | 87 | 1005.0 |
| 20260505233103 | 41 | 80 | 7.0 | 12.2 | 0.00 | 0.00 | 0.00 | 87 | 1004.9 |
| 20260505233004 | 41 | 81 | 7.0 | 12.2 | 0.00 | 0.00 | 0.00 | 87 | 1005.1 |
| 20260505232903 | 41 | 80 | 7.0 | 12.2 | 0.00 | 0.00 | 0.00 | 87 | 1004.8 |
| 20260505232803 | 41 | 81 | 7.0 | 12.2 | 0.00 | 0.00 | 0.00 | 87 | 1005.1 |
| 20260505232724 | 41 | 82 | 7.0 | 11.3 | 0.00 | 0.00 | 0.00 | 88 | 1004.9 |
| 20260505232603 | 41 | 82 | 7.0 | 11.3 | 0.00 | 0.00 | 0.00 | 87 | 1004.9 |
| 20260505232524 | 41 | 84 | 7.0 | 11.3 | 0.00 | 0.00 | 0.00 | 87 | 1005.0 |
| 20260505232403 | 41 | 85 | 7.0 | 11.3 | 0.00 | 0.00 | 0.00 | 87 | 1004.9 |
| 20260505232305 | 41 | 86 | 7.0 | 11.3 | 0.00 | 0.00 | 0.00 | 87 | 1005.2 |
| 20260505232203 | 41 | 85 | 7.0 | 11.3 | 0.00 | 0.00 | 0.00 | 87 | 1005.0 |
| 20260505232103 | 41 | 86 | 6.1 | 11.3 | 0.00 | 0.00 | 0.00 | 87 | 1005.0 |
| 20260505232003 | 41 | 87 | 6.1 | 11.3 | 0.00 | 0.00 | 0.00 | 88 | 1005.0 |
| 20260505231924 | 41 | 87 | 6.1 | 11.3 | 0.00 | 0.00 | 0.00 | 88 | 1005.1 |
| 20260505231803 | 41 | 87 | 7.0 | 11.3 | 0.00 | 0.00 | 0.00 | 88 | 1004.9 |
| 20260505231703 | 41 | 88 | 7.0 | 11.3 | 0.00 | 0.00 | 0.00 | 88 | 1005.2 |
| 20260505231603 | 41 | 85 | 7.0 | 11.3 | 0.00 | 0.00 | 0.00 | 88 | 1005.2 |
| 20260505231503 | 41 | 84 | 7.0 | 11.3 | 0.00 | 0.00 | 0.00 | 88 | 1005.1 |
| 20260505231403 | 41 | 84 | 7.0 | 11.3 | 0.00 | 0.00 | 0.00 | 88 | 1005.2 |
| 20260505231303 | 41 | 82 | 7.0 | 11.3 | 0.00 | 0.00 | 0.00 | 88 | 1005.0 |
| 20260505231203 | 41 | 82 | 7.0 | 11.3 | 0.00 | 0.00 | 0.00 | 88 | 1005.3 |
| 20260505231103 | 41 | 81 | 7.8 | 11.3 | 0.00 | 0.00 | 0.00 | 88 | 1005.1 |
| 20260505231003 | 41 | 80 | 7.8 | 11.3 | 0.00 | 0.00 | 0.00 | 88 | 1005.0 |
| 20260505230903 | 41 | 81 | 7.8 | 12.2 | 0.00 | 0.00 | 0.00 | 88 | 1005.0 |
| 20260505230803 | 41 | 80 | 7.8 | 12.2 | 0.00 | 0.00 | 0.00 | 88 | 1005.2 |
| 20260505230703 | 41 | 78 | 7.8 | 12.2 | 0.00 | 0.00 | 0.00 | 88 | 1005.0 |
| 20260505230603 | 41 | 80 | 7.8 | 12.2 | 0.00 | 0.00 | 0.00 | 88 | 1005.0 |
| 20260505230503 | 41 | 80 | 7.8 | 12.2 | 0.00 | 0.00 | 0.00 | 88 | 1005.1 |
| 20260505230403 | 42 | 81 | 7.8 | 12.2 | 0.00 | 0.00 | 0.00 | 88 | 1005.2 |
| 20260505230303 | 42 | 81 | 7.8 | 12.2 | 0.00 | 0.00 | 0.00 | 88 | 1005.1 |
| 20260505230204 | 42 | 81 | 7.8 | 12.2 | 0.00 | 0.00 | 0.00 | 88 | 1004.9 |
| 20260505230003 | 42 | 81 | 7.8 | 12.2 | 0.00 | 0.00 | 0.00 | 88 | 1004.9 |
| 20260505225903 | 42 | 80 | 7.8 | 12.2 | 0.00 | 0.00 | 0.00 | 88 | 1005.1 |
| 20260505225803 | 42 | 81 | 7.0 | 12.2 | 0.00 | 0.00 | 0.00 | 88 | 1005.0 |
| 20260505225703 | 42 | 81 | 7.0 | 11.3 | 0.00 | 0.00 | 0.00 | 89 | 1005.0 |
| 20260505225624 | 42 | 80 | 7.0 | 11.3 | 0.00 | 0.00 | 0.00 | 89 | 1004.9 |
| 20260505225504 | 42 | 80 | 7.0 | 11.3 | 0.00 | 0.00 | 0.00 | 89 | 1005.1 |
| 20260505225403 | 42 | 80 | 7.0 | 11.3 | 0.00 | 0.00 | 0.00 | 89 | 1005.3 |
| 20260505225305 | 42 | 79 | 7.0 | 11.3 | 0.00 | 0.00 | 0.00 | 89 | 1005.1 |
| 20260505225203 | 42 | 78 | 7.0 | 11.3 | 0.00 | 0.00 | 0.00 | 89 | 1005.3 |
| 20260505225103 | 42 | 77 | 7.0 | 11.3 | 0.00 | 0.00 | 0.00 | 89 | 1005.1 |
| 20260505225003 | 42 | 76 | 7.0 | 12.2 | 0.00 | 0.00 | 0.00 | 89 | 1005.3 |
| 20260505224903 | 42 | 76 | 7.0 | 12.2 | 0.00 | 0.00 | 0.00 | 89 | 1005.3 |
| 20260505224803 | 42 | 76 | 7.0 | 12.2 | 0.00 | 0.00 | 0.00 | 89 | 1005.0 |
| 20260505224703 | 42 | 77 | 7.0 | 12.2 | 0.00 | 0.00 | 0.00 | 89 | 1005.2 |
| 20260505224603 | 42 | 77 | 7.0 | 12.2 | 0.00 | 0.00 | 0.00 | 89 | 1005.3 |
| 20260505224503 | 42 | 76 | 7.0 | 12.2 | 0.00 | 0.00 | 0.00 | 88 | 1005.0 |
| 20260505224403 | 42 | 75 | 7.0 | 12.2 | 0.00 | 0.00 | 0.00 | 88 | 1005.0 |
| 20260505224303 | 42 | 76 | 7.0 | 12.2 | 0.00 | 0.00 | 0.00 | 88 | 1005.0 |
| 20260505224203 | 42 | 77 | 7.0 | 12.2 | 0.00 | 0.00 | 0.00 | 88 | 1005.0 |
| 20260505224124 | 42 | 78 | 7.0 | 12.2 | 0.00 | 0.00 | 0.00 | 88 | 1005.2 |
| 20260505224003 | 42 | 78 | 7.0 | 12.2 | 0.00 | 0.00 | 0.00 | 88 | 1005.0 |
| 20260505223924 | 42 | 78 | 7.0 | 12.2 | 0.00 | 0.00 | 0.00 | 88 | 1005.1 |
| 20260505223803 | 42 | 77 | 7.0 | 11.3 | 0.00 | 0.00 | 0.00 | 88 | 1005.2 |
| 20260505223703 | 42 | 77 | 7.0 | 11.3 | 0.00 | 0.00 | 0.00 | 88 | 1005.2 |
| 20260505223603 | 42 | 77 | 7.0 | 11.3 | 0.00 | 0.00 | 0.00 | 88 | 1005.0 |
| 20260505223524 | 42 | 77 | 7.0 | 11.3 | 0.00 | 0.00 | 0.00 | 88 | 1005.0 |
| 20260505223424 | 42 | 77 | 7.0 | 11.3 | 0.00 | 0.00 | 0.00 | 88 | 1005.3 |
| 20260505223303 | 42 | 77 | 7.0 | 11.3 | 0.00 | 0.00 | 0.00 | 88 | 1004.9 |
| 20260505223203 | 42 | 76 | 7.0 | 11.3 | 0.00 | 0.00 | 0.00 | 88 | 1005.2 |
| 20260505223103 | 42 | 77 | 7.0 | 11.3 | 0.00 | 0.00 | 0.00 | 88 | 1005.3 |
| 20260505223024 | 42 | 76 | 7.0 | 11.3 | 0.00 | 0.00 | 0.00 | 88 | 1004.9 |
| 20260505222903 | 42 | 75 | 6.1 | 9.6 | 0.00 | 0.00 | 0.00 | 88 | 1005.1 |
| 20260505222803 | 42 | 76 | 6.1 | 9.6 | 0.00 | 0.00 | 0.00 | 88 | 1005.0 |
| 20260505222703 | 42 | 76 | 6.1 | 8.7 | 0.00 | 0.00 | 0.00 | 88 | 1005.0 |
| 20260505222603 | 42 | 78 | 6.1 | 8.7 | 0.00 | 0.00 | 0.00 | 88 | 1005.2 |
| 20260505222503 | 42 | 78 | 6.1 | 9.6 | 0.00 | 0.00 | 0.00 | 88 | 1005.0 |
| 20260505222403 | 43 | 77 | 6.1 | 9.6 | 0.00 | 0.00 | 0.00 | 88 | 1005.2 |
| 20260505222305 | 43 | 77 | 6.1 | 9.6 | 0.00 | 0.00 | 0.00 | 88 | 1005.2 |
| 20260505222224 | 43 | 77 | 6.1 | 9.6 | 0.00 | 0.00 | 0.00 | 88 | 1005.0 |
| 20260505222124 | 43 | 77 | 6.1 | 9.6 | 0.00 | 0.00 | 0.00 | 88 | 1005.0 |
| 20260505222003 | 43 | 79 | 6.1 | 9.6 | 0.00 | 0.00 | 0.00 | 88 | 1005.2 |
| 20260505221903 | 43 | 79 | 6.1 | 9.6 | 0.00 | 0.00 | 0.00 | 88 | 1005.2 |
| 20260505221803 | 43 | 79 | 6.1 | 9.6 | 0.00 | 0.00 | 0.00 | 88 | 1005.0 |
| 20260505221703 | 43 | 78 | 6.1 | 9.6 | 0.00 | 0.00 | 0.00 | 89 | 1005.0 |
| 20260505221603 | 43 | 75 | 6.1 | 9.6 | 0.00 | 0.00 | 0.00 | 88 | 1005.1 |
| 20260505221503 | 43 | 73 | 6.1 | 9.6 | 0.00 | 0.00 | 0.00 | 88 | 1005.1 |
| 20260505221403 | 43 | 75 | 6.1 | 9.6 | 0.00 | 0.00 | 0.00 | 89 | 1004.9 |
| 20260505221303 | 43 | 75 | 6.1 | 13.0 | 0.00 | 0.00 | 0.00 | 89 | 1005.2 |
| 20260505221203 | 43 | 74 | 6.1 | 13.0 | 0.00 | 0.00 | 0.00 | 89 | 1004.9 |
| 20260505221103 | 43 | 75 | 6.1 | 13.0 | 0.00 | 0.00 | 0.00 | 88 | 1005.0 |
| 20260505221024 | 43 | 75 | 6.1 | 13.0 | 0.00 | 0.00 | 0.00 | 88 | 1004.9 |
| 20260505220903 | 43 | 75 | 6.1 | 13.0 | 0.00 | 0.00 | 0.00 | 88 | 1005.0 |
| 20260505220803 | 43 | 75 | 7.0 | 13.0 | 0.00 | 0.00 | 0.00 | 88 | 1005.2 |
| 20260505220703 | 43 | 76 | 7.0 | 13.0 | 0.00 | 0.00 | 0.00 | 88 | 1005.1 |
| 20260505220603 | 43 | 78 | 7.0 | 13.0 | 0.00 | 0.00 | 0.00 | 88 | 1005.2 |
| 20260505220503 | 43 | 78 | 7.0 | 13.0 | 0.00 | 0.00 | 0.00 | 87 | 1005.1 |
| 20260505220403 | 43 | 78 | 7.0 | 13.0 | 0.00 | 0.00 | 0.00 | 87 | 1005.0 |
| 20260505220303 | 43 | 78 | 7.0 | 13.0 | 0.00 | 0.00 | 0.00 | 87 | 1005.1 |
| 20260505220203 | 43 | 80 | 7.0 | 13.0 | 0.00 | 0.00 | 0.00 | 87 | 1005.0 |
| 20260505220124 | 43 | 81 | 7.0 | 12.2 | 0.00 | 0.00 | 0.00 | 87 | 1004.9 |
| 20260505220003 | 43 | 82 | 7.0 | 12.2 | 0.00 | 0.00 | 0.00 | 87 | 1005.2 |
| 20260505215903 | 43 | 83 | 7.0 | 12.2 | 0.00 | 0.00 | 0.00 | 87 | 1005.0 |
| 20260505215803 | 43 | 83 | 7.0 | 12.2 | 0.00 | 0.00 | 0.00 | 87 | 1005.0 |
| 20260505215703 | 43 | 82 | 7.0 | 12.2 | 0.00 | 0.00 | 0.00 | 87 | 1005.0 |
| 20260505215603 | 43 | 82 | 7.0 | 11.3 | 0.00 | 0.00 | 0.00 | 87 | 1004.8 |
| 20260505215503 | 43 | 81 | 7.0 | 11.3 | 0.00 | 0.00 | 0.00 | 87 | 1005.0 |
| 20260505215403 | 43 | 81 | 7.0 | 11.3 | 0.00 | 0.00 | 0.00 | 87 | 1004.9 |
| 20260505215324 | 44 | 81 | 7.0 | 11.3 | 0.00 | 0.00 | 0.00 | 87 | 1004.8 |
| 20260505215203 | 44 | 80 | 7.0 | 11.3 | 0.00 | 0.00 | 0.00 | 87 | 1004.9 |
| 20260505215103 | 44 | 81 | 7.0 | 11.3 | 0.00 | 0.00 | 0.00 | 87 | 1005.0 |
| 20260505215003 | 44 | 81 | 7.0 | 11.3 | 0.00 | 0.00 | 0.00 | 87 | 1004.9 |
| 20260505214903 | 44 | 82 | 7.0 | 11.3 | 0.00 | 0.00 | 0.00 | 87 | 1004.8 |
| 20260505214803 | 44 | 82 | 7.0 | 11.3 | 0.00 | 0.00 | 0.00 | 87 | 1005.0 |
| 20260505214703 | 44 | 82 | 7.0 | 11.3 | 0.00 | 0.00 | 0.00 | 87 | 1004.8 |
| 20260505214603 | 44 | 82 | 7.0 | 11.3 | 0.00 | 0.00 | 0.00 | 87 | 1004.8 |
| 20260505214503 | 44 | 84 | 7.0 | 11.3 | 0.00 | 0.00 | 0.00 | 87 | 1004.9 |
| 20260505214403 | 44 | 86 | 7.0 | 11.3 | 0.00 | 0.00 | 0.00 | 87 | 1005.1 |
| 20260505214303 | 44 | 86 | 7.0 | 11.3 | 0.00 | 0.00 | 0.00 | 87 | 1004.8 |
| 20260505214203 | 44 | 85 | 7.0 | 11.3 | 0.00 | 0.00 | 0.00 | 87 | 1004.9 |
| 20260505214103 | 44 | 83 | 7.0 | 11.3 | 0.00 | 0.00 | 0.00 | 87 | 1004.9 |
| 20260505214024 | 44 | 83 | 7.0 | 11.3 | 0.00 | 0.00 | 0.00 | 87 | 1004.7 |
| 20260505213903 | 44 | 81 | 7.0 | 11.3 | 0.00 | 0.00 | 0.00 | 87 | 1004.9 |
| 20260505213803 | 44 | 80 | 7.0 | 11.3 | 0.00 | 0.00 | 0.00 | 87 | 1004.7 |
| 20260505213703 | 44 | 81 | 7.8 | 11.3 | 0.00 | 0.00 | 0.00 | 87 | 1004.9 |
| 20260505213603 | 44 | 82 | 7.8 | 12.2 | 0.00 | 0.00 | 0.00 | 87 | 1004.8 |
| 20260505213524 | 44 | 82 | 7.8 | 12.2 | 0.00 | 0.00 | 0.00 | 87 | 1004.6 |
| 20260505213403 | 44 | 79 | 7.8 | 12.2 | 0.00 | 0.00 | 0.00 | 87 | 1004.6 |
| 20260505213303 | 44 | 78 | 7.8 | 12.2 | 0.00 | 0.00 | 0.00 | 87 | 1004.7 |
| 20260505213203 | 44 | 78 | 7.8 | 12.2 | 0.00 | 0.00 | 0.00 | 87 | 1004.7 |
| 20260505213103 | 44 | 79 | 7.0 | 12.2 | 0.00 | 0.00 | 0.00 | 87 | 1004.8 |
| 20260505213003 | 44 | 79 | 7.0 | 12.2 | 0.00 | 0.00 | 0.00 | 87 | 1005.0 |
| 20260505212903 | 44 | 80 | 7.0 | 12.2 | 0.00 | 0.00 | 0.00 | 87 | 1004.8 |
| 20260505212803 | 44 | 80 | 7.0 | 12.2 | 0.00 | 0.00 | 0.00 | 87 | 1004.9 |
| 20260505212724 | 44 | 79 | 7.0 | 12.2 | 0.00 | 0.00 | 0.00 | 87 | 1004.7 |
| 20260505212603 | 44 | 79 | 7.0 | 12.2 | 0.00 | 0.00 | 0.00 | 87 | 1004.8 |
| 20260505212524 | 44 | 78 | 7.0 | 12.2 | 0.00 | 0.00 | 0.00 | 87 | 1004.8 |
| 20260505212403 | 44 | 79 | 7.0 | 11.3 | 0.00 | 0.00 | 0.00 | 87 | 1004.7 |
| 20260505212305 | 44 | 80 | 7.0 | 11.3 | 0.00 | 0.00 | 0.00 | 86 | 1004.9 |
| 20260505212224 | 44 | 80 | 7.0 | 11.3 | 0.00 | 0.00 | 0.00 | 86 | 1004.8 |
| 20260505212103 | 44 | 80 | 7.0 | 11.3 | 0.00 | 0.00 | 0.00 | 86 | 1004.7 |
| 20260505212024 | 44 | 80 | 7.0 | 11.3 | 0.00 | 0.00 | 0.00 | 86 | 1004.8 |
| 20260505211903 | 44 | 82 | 7.8 | 11.3 | 0.00 | 0.00 | 0.00 | 86 | 1004.6 |
| 20260505211824 | 44 | 82 | 7.8 | 11.3 | 0.00 | 0.00 | 0.00 | 86 | 1004.8 |
| 20260505211704 | 44 | 82 | 7.0 | 11.3 | 0.00 | 0.00 | 0.00 | 86 | 1004.5 |
| 20260505211604 | 44 | 82 | 7.0 | 11.3 | 0.00 | 0.00 | 0.00 | 86 | 1004.8 |
| 20260505211525 | 44 | 81 | 7.0 | 11.3 | 0.00 | 0.00 | 0.00 | 86 | 1004.9 |
| 20260505211405 | 44 | 80 | 7.0 | 11.3 | 0.00 | 0.00 | 0.00 | 86 | 1004.8 |
| 20260505211304 | 44 | 78 | 7.0 | 12.2 | 0.00 | 0.00 | 0.00 | 86 | 1004.7 |
| 20260505211205 | 44 | 78 | 7.0 | 12.2 | 0.00 | 0.00 | 0.00 | 86 | 1004.8 |
| 20260505211105 | 44 | 79 | 7.0 | 12.2 | 0.00 | 0.00 | 0.00 | 86 | 1004.7 |
| 20260505211025 | 44 | 79 | 7.0 | 12.2 | 0.00 | 0.00 | 0.00 | 86 | 1004.9 |
| 20260505210904 | 44 | 76 | 7.0 | 12.2 | 0.00 | 0.00 | 0.00 | 87 | 1004.8 |
| 20260505210805 | 44 | 76 | 7.0 | 12.2 | 0.00 | 0.00 | 0.00 | 87 | 1004.8 |
| 20260505210704 | 44 | 75 | 7.0 | 12.2 | 0.00 | 0.00 | 0.00 | 86 | 1004.7 |
| 20260505210625 | 44 | 75 | 7.0 | 12.2 | 0.00 | 0.00 | 0.00 | 86 | 1004.9 |
| 20260505210504 | 44 | 77 | 7.0 | 12.2 | 0.00 | 0.00 | 0.00 | 86 | 1004.9 |
| 20260505210426 | 44 | 78 | 7.0 | 12.2 | 0.00 | 0.00 | 0.00 | 86 | 1004.8 |
| 20260505210304 | 44 | 77 | 7.0 | 12.2 | 0.00 | 0.00 | 0.00 | 86 | 1004.8 |
| 20260505210205 | 44 | 77 | 7.0 | 12.2 | 0.00 | 0.00 | 0.00 | 86 | 1004.7 |
| 20260505210104 | 44 | 77 | 7.0 | 11.3 | 0.00 | 0.00 | 0.00 | 86 | 1004.6 |
| 20260505210005 | 44 | 77 | 7.0 | 11.3 | 0.00 | 0.00 | 0.00 | 86 | 1004.7 |
| 20260505205905 | 44 | 78 | 7.0 | 11.3 | 0.00 | 0.00 | 0.00 | 86 | 1004.8 |
| 20260505205825 | 44 | 78 | 7.0 | 11.3 | 0.00 | 0.00 | 0.00 | 86 | 1004.7 |
| 20260505205705 | 44 | 78 | 7.0 | 11.3 | 0.00 | 0.00 | 0.00 | 86 | 1004.6 |
| 20260505205604 | 44 | 78 | 7.0 | 11.3 | 0.00 | 0.00 | 0.00 | 86 | 1004.8 |
| 20260505205504 | 44 | 78 | 7.0 | 14.8 | 0.00 | 0.00 | 0.00 | 85 | 1004.7 |
| 20260505205425 | 44 | 79 | 7.0 | 14.8 | 0.00 | 0.00 | 0.00 | 85 | 1004.5 |
| 20260505205305 | 44 | 80 | 7.8 | 14.8 | 0.00 | 0.00 | 0.00 | 85 | 1004.5 |
| 20260505205226 | 44 | 80 | 7.8 | 14.8 | 0.00 | 0.00 | 0.00 | 85 | 1004.6 |
| 20260505205104 | 44 | 79 | 7.8 | 14.8 | 0.00 | 0.00 | 0.00 | 85 | 1004.7 |
| 20260505205005 | 44 | 79 | 7.8 | 14.8 | 0.00 | 0.00 | 0.00 | 85 | 1004.7 |
| 20260505204905 | 45 | 79 | 7.8 | 14.8 | 0.00 | 0.00 | 0.00 | 85 | 1004.7 |
| 20260505204825 | 45 | 78 | 7.8 | 14.8 | 0.00 | 0.00 | 0.00 | 85 | 1004.7 |
| 20260505204705 | 45 | 79 | 7.8 | 14.8 | 0.00 | 0.00 | 0.00 | 84 | 1004.7 |
| 20260505204604 | 45 | 79 | 7.8 | 14.8 | 0.00 | 0.00 | 0.00 | 84 | 1004.7 |
| 20260505204505 | 45 | 78 | 8.7 | 14.8 | 0.00 | 0.00 | 0.00 | 84 | 1004.6 |
| 20260505204425 | 45 | 77 | 8.7 | 14.8 | 0.00 | 0.00 | 0.00 | 84 | 1004.7 |
| 20260505204304 | 45 | 76 | 7.8 | 13.0 | 0.00 | 0.00 | 0.00 | 84 | 1004.5 |
| 20260505204204 | 45 | 76 | 7.8 | 12.2 | 0.00 | 0.00 | 0.00 | 84 | 1004.8 |
| 20260505204104 | 45 | 75 | 7.8 | 12.2 | 0.00 | 0.00 | 0.00 | 84 | 1004.6 |
| 20260505204004 | 45 | 74 | 7.8 | 12.2 | 0.00 | 0.00 | 0.00 | 84 | 1004.7 |
| 20260505203926 | 45 | 75 | 7.8 | 12.2 | 0.00 | 0.00 | 0.00 | 85 | 1004.7 |
| 20260505203825 | 45 | 75 | 7.8 | 12.2 | 0.00 | 0.00 | 0.00 | 85 | 1004.6 |
| 20260505203704 | 45 | 76 | 7.8 | 11.3 | 0.00 | 0.00 | 0.00 | 85 | 1004.7 |
| 20260505203604 | 45 | 76 | 7.0 | 11.3 | 0.00 | 0.00 | 0.00 | 85 | 1004.7 |
| 20260505203505 | 45 | 75 | 7.0 | 11.3 | 0.00 | 0.00 | 0.00 | 85 | 1004.7 |
| 20260505203404 | 45 | 76 | 7.0 | 11.3 | 0.00 | 0.00 | 0.00 | 85 | 1004.7 |
| 20260505203326 | 45 | 76 | 7.0 | 11.3 | 0.00 | 0.00 | 0.00 | 85 | 1004.5 |
| 20260505203204 | 45 | 78 | 7.0 | 11.3 | 0.00 | 0.00 | 0.00 | 86 | 1004.7 |
| 20260505203104 | 45 | 79 | 7.0 | 11.3 | 0.00 | 0.00 | 0.00 | 86 | 1004.6 |
| 20260505203004 | 45 | 79 | 7.0 | 11.3 | 0.00 | 0.00 | 0.00 | 86 | 1004.6 |
| 20260505202904 | 45 | 79 | 7.0 | 11.3 | 0.00 | 0.00 | 0.00 | 86 | 1004.8 |
| 20260505202804 | 45 | 77 | 7.0 | 11.3 | 0.00 | 0.00 | 0.00 | 86 | 1004.7 |
| 20260505202705 | 45 | 78 | 7.0 | 11.3 | 0.00 | 0.00 | 0.00 | 86 | 1004.6 |
| 20260505202625 | 45 | 79 | 7.0 | 11.3 | 0.00 | 0.00 | 0.00 | 86 | 1004.5 |
| 20260505202504 | 45 | 79 | 7.0 | 11.3 | 0.00 | 0.00 | 0.00 | 86 | 1004.7 |
| 20260505202405 | 45 | 78 | 7.0 | 11.3 | 0.00 | 0.00 | 0.00 | 86 | 1004.7 |
| 20260505202306 | 45 | 78 | 7.0 | 11.3 | 0.00 | 0.00 | 0.00 | 85 | 1004.6 |
| 20260505202204 | 45 | 77 | 7.0 | 9.6 | 0.00 | 0.00 | 0.00 | 86 | 1004.8 |
| 20260505202104 | 45 | 77 | 7.0 | 9.6 | 0.00 | 0.00 | 0.00 | 85 | 1004.6 |
| 20260505202025 | 45 | 77 | 7.0 | 9.6 | 0.00 | 0.00 | 0.00 | 85 | 1004.6 |
| 20260505201904 | 45 | 77 | 7.0 | 9.6 | 0.00 | 0.00 | 0.00 | 85 | 1004.6 |
| 20260505201804 | 45 | 78 | 7.0 | 9.6 | 0.00 | 0.00 | 0.00 | 85 | 1004.7 |
| 20260505201704 | 45 | 78 | 7.0 | 9.6 | 0.00 | 0.00 | 0.00 | 85 | 1004.8 |
| 20260505201605 | 45 | 78 | 7.0 | 9.6 | 0.00 | 0.00 | 0.00 | 85 | 1004.7 |
| 20260505201504 | 45 | 79 | 7.0 | 9.6 | 0.00 | 0.00 | 0.00 | 85 | 1004.6 |
| 20260505201404 | 45 | 78 | 7.0 | 9.6 | 0.00 | 0.00 | 0.00 | 85 | 1004.8 |
| 20260505201304 | 45 | 79 | 7.0 | 9.6 | 0.00 | 0.00 | 0.00 | 85 | 1004.7 |
| 20260505201204 | 45 | 79 | 7.0 | 9.6 | 0.00 | 0.00 | 0.00 | 85 | 1004.8 |
| 20260505201104 | 45 | 79 | 7.0 | 9.6 | 0.00 | 0.00 | 0.00 | 84 | 1004.6 |
| 20260505201004 | 45 | 79 | 7.0 | 9.6 | 0.00 | 0.00 | 0.00 | 84 | 1004.7 |
| 20260505200905 | 45 | 79 | 7.0 | 9.6 | 0.00 | 0.00 | 0.00 | 84 | 1004.7 |
| 20260505200804 | 45 | 79 | 7.0 | 12.2 | 0.00 | 0.00 | 0.00 | 84 | 1004.5 |
| 20260505200704 | 45 | 79 | 7.0 | 12.2 | 0.00 | 0.00 | 0.00 | 84 | 1004.7 |
| 20260505200604 | 45 | 80 | 7.0 | 12.2 | 0.00 | 0.00 | 0.00 | 84 | 1004.6 |
| 20260505200504 | 46 | 80 | 7.0 | 12.2 | 0.00 | 0.00 | 0.00 | 83 | 1004.7 |
| 20260505200404 | 46 | 80 | 7.0 | 12.2 | 0.00 | 0.00 | 0.00 | 83 | 1004.7 |
| 20260505200304 | 46 | 80 | 7.0 | 12.2 | 0.00 | 0.00 | 0.00 | 83 | 1004.7 |
| 20260505200205 | 46 | 79 | 7.0 | 12.2 | 0.00 | 0.00 | 0.00 | 83 | 1004.6 |
| 20260505200104 | 46 | 77 | 7.0 | 12.2 | 0.00 | 0.00 | 0.00 | 83 | 1004.6 |
| 20260505200005 | 46 | 77 | 7.0 | 13.9 | 0.00 | 0.00 | 0.00 | 83 | 1004.6 |
| 20260505195904 | 46 | 78 | 7.0 | 13.9 | 0.00 | 0.00 | 0.00 | 83 | 1004.7 |
| 20260505195805 | 46 | 78 | 7.8 | 13.9 | 0.00 | 0.00 | 0.00 | 82 | 1004.4 |
| 20260505195704 | 46 | 79 | 7.8 | 13.9 | 0.00 | 0.00 | 0.00 | 82 | 1004.8 |
| 20260505195605 | 46 | 78 | 7.8 | 13.9 | 0.00 | 0.00 | 0.00 | 82 | 1004.5 |
| 20260505195504 | 46 | 78 | 7.8 | 13.9 | 0.00 | 0.00 | 0.00 | 82 | 1004.5 |
| 20260505195404 | 46 | 79 | 7.8 | 13.9 | 0.00 | 0.00 | 0.00 | 82 | 1004.6 |
| 20260505195305 | 46 | 80 | 7.8 | 13.9 | 0.00 | 0.00 | 0.00 | 82 | 1004.8 |
| 20260505195204 | 46 | 80 | 7.8 | 13.9 | 0.00 | 0.00 | 0.00 | 82 | 1004.4 |
| 20260505195104 | 46 | 82 | 7.0 | 13.9 | 0.00 | 0.00 | 0.00 | 82 | 1004.5 |
| 20260505195005 | 46 | 84 | 7.8 | 13.9 | 0.00 | 0.00 | 0.00 | 82 | 1004.5 |
| 20260505194904 | 46 | 84 | 7.0 | 13.9 | 0.00 | 0.00 | 0.00 | 82 | 1004.5 |
| 20260505194805 | 46 | 83 | 7.0 | 13.0 | 0.00 | 0.00 | 0.00 | 83 | 1004.7 |
| 20260505194726 | 46 | 84 | 7.8 | 13.0 | 0.00 | 0.00 | 0.00 | 82 | 1004.5 |
| 20260505194604 | 46 | 86 | 7.8 | 13.0 | 0.00 | 0.00 | 0.00 | 82 | 1004.5 |
| 20260505194504 | 46 | 87 | 7.8 | 13.0 | 0.00 | 0.00 | 0.00 | 83 | 1004.5 |
| 20260505194404 | 46 | 86 | 7.8 | 13.0 | 0.00 | 0.00 | 0.00 | 83 | 1004.5 |
| 20260505194304 | 46 | 86 | 7.8 | 13.0 | 0.00 | 0.00 | 0.00 | 83 | 1004.5 |
| 20260505194204 | 46 | 85 | 7.8 | 13.0 | 0.00 | 0.00 | 0.00 | 82 | 1004.5 |
| 20260505194104 | 46 | 86 | 7.8 | 13.0 | 0.00 | 0.00 | 0.00 | 82 | 1004.3 |
| 20260505194004 | 46 | 87 | 7.8 | 12.2 | 0.00 | 0.00 | 0.00 | 83 | 1004.4 |
| 20260505193925 | 46 | 86 | 7.8 | 12.2 | 0.00 | 0.00 | 0.00 | 83 | 1004.3 |
| 20260505193804 | 46 | 86 | 7.8 | 13.0 | 0.00 | 0.00 | 0.00 | 83 | 1004.5 |
| 20260505193725 | 46 | 87 | 7.8 | 13.0 | 0.00 | 0.00 | 0.00 | 83 | 1004.5 |
| 20260505193605 | 46 | 85 | 7.8 | 13.0 | 0.00 | 0.00 | 0.00 | 83 | 1004.4 |
| 20260505193504 | 46 | 85 | 7.8 | 13.0 | 0.00 | 0.00 | 0.00 | 82 | 1004.3 |
| 20260505193404 | 46 | 86 | 7.8 | 13.0 | 0.00 | 0.00 | 0.00 | 83 | 1004.5 |
| 20260505193304 | 46 | 85 | 7.8 | 13.0 | 0.00 | 0.00 | 0.00 | 82 | 1004.6 |
| 20260505193225 | 46 | 84 | 7.8 | 13.0 | 0.00 | 0.00 | 0.00 | 82 | 1004.2 |
| 20260505193104 | 46 | 86 | 7.8 | 13.0 | 0.00 | 0.00 | 0.00 | 82 | 1004.4 |
| 20260505193004 | 46 | 86 | 7.8 | 13.0 | 0.00 | 0.00 | 0.00 | 82 | 1004.4 |
| 20260505192904 | 46 | 85 | 7.8 | 13.0 | 0.00 | 0.00 | 0.00 | 82 | 1004.4 |
| 20260505192825 | 46 | 85 | 7.8 | 13.0 | 0.00 | 0.00 | 0.00 | 83 | 1004.3 |
| 20260505192704 | 46 | 85 | 7.8 | 13.0 | 0.00 | 0.00 | 0.00 | 83 | 1004.2 |
| 20260505192604 | 46 | 86 | 7.8 | 13.0 | 0.00 | 0.00 | 0.00 | 82 | 1004.4 |
| 20260505192504 | 46 | 86 | 7.8 | 13.0 | 0.00 | 0.00 | 0.00 | 82 | 1004.2 |
| 20260505192404 | 46 | 86 | 7.8 | 13.0 | 0.00 | 0.00 | 0.00 | 82 | 1004.3 |
| 20260505192305 | 46 | 88 | 7.8 | 13.0 | 0.00 | 0.00 | 0.00 | 83 | 1004.2 |
| 20260505192204 | 46 | 89 | 7.8 | 12.2 | 0.00 | 0.00 | 0.00 | 83 | 1004.2 |
| 20260505192125 | 46 | 88 | 7.8 | 12.2 | 0.00 | 0.00 | 0.00 | 83 | 1004.3 |
| 20260505192005 | 46 | 88 | 7.8 | 12.2 | 0.00 | 0.00 | 0.00 | 83 | 1004.3 |
| 20260505191925 | 46 | 90 | 7.8 | 12.2 | 0.00 | 0.00 | 0.00 | 83 | 1004.1 |
| 20260505191804 | 46 | 89 | 7.0 | 12.2 | 0.00 | 0.00 | 0.00 | 82 | 1004.3 |
| 20260505191704 | 46 | 89 | 7.0 | 13.9 | 0.00 | 0.00 | 0.00 | 83 | 1004.1 |
| 20260505191604 | 46 | 87 | 7.0 | 13.9 | 0.00 | 0.00 | 0.00 | 83 | 1004.3 |
| 20260505191505 | 46 | 86 | 7.0 | 13.9 | 0.00 | 0.00 | 0.00 | 83 | 1004.2 |
| 20260505191404 | 46 | 85 | 7.0 | 13.9 | 0.00 | 0.00 | 0.00 | 83 | 1004.2 |
| 20260505191304 | 46 | 85 | 7.8 | 13.9 | 0.00 | 0.00 | 0.00 | 83 | 1004.4 |
| 20260505191204 | 46 | 84 | 7.8 | 13.9 | 0.00 | 0.00 | 0.00 | 83 | 1004.2 |
| 20260505191104 | 46 | 84 | 7.8 | 13.9 | 0.00 | 0.00 | 0.00 | 83 | 1004.2 |
| 20260505191004 | 46 | 84 | 7.8 | 13.9 | 0.00 | 0.00 | 0.00 | 83 | 1004.3 |
| 20260505190905 | 46 | 85 | 7.8 | 13.9 | 0.00 | 0.00 | 0.00 | 83 | 1004.2 |
| 20260505190804 | 46 | 84 | 7.8 | 13.9 | 0.00 | 0.00 | 0.00 | 82 | 1004.2 |
| 20260505190705 | 46 | 84 | 7.8 | 13.9 | 0.00 | 0.00 | 0.00 | 82 | 1004.2 |
| 20260505190604 | 46 | 84 | 7.8 | 13.0 | 0.00 | 0.00 | 0.00 | 82 | 1004.1 |
| 20260505190525 | 46 | 83 | 7.8 | 13.0 | 0.00 | 0.00 | 0.00 | 82 | 1004.1 |
| 20260505190405 | 46 | 84 | 7.8 | 13.0 | 0.00 | 0.00 | 0.00 | 82 | 1004.3 |
| 20260505190304 | 46 | 84 | 7.8 | 13.0 | 0.00 | 0.00 | 0.00 | 82 | 1004.4 |
| 20260505190204 | 46 | 83 | 7.0 | 12.2 | 0.00 | 0.00 | 0.00 | 82 | 1004.1 |
| 20260505190125 | 46 | 83 | 7.0 | 12.2 | 0.00 | 0.00 | 0.00 | 82 | 1004.2 |
| 20260505190025 | 46 | 81 | 7.0 | 12.2 | 0.00 | 0.00 | 0.00 | 82 | 1004.0 |
| 20260505185904 | 46 | 79 | 7.0 | 12.2 | 0.00 | 0.00 | 0.00 | 82 | 1004.3 |
| 20260505185804 | 46 | 79 | 7.0 | 12.2 | 0.00 | 0.00 | 0.00 | 82 | 1004.3 |
| 20260505185704 | 46 | 80 | 7.0 | 12.2 | 0.00 | 0.00 | 0.00 | 81 | 1004.2 |
| 20260505185604 | 46 | 81 | 7.0 | 12.2 | 0.00 | 0.00 | 0.00 | 82 | 1004.0 |
| 20260505185504 | 46 | 82 | 7.0 | 12.2 | 0.00 | 0.00 | 0.00 | 83 | 1004.1 |
| 20260505185425 | 46 | 82 | 7.8 | 12.2 | 0.00 | 0.00 | 0.00 | 82 | 1004.1 |
| 20260505185305 | 46 | 80 | 7.8 | 12.2 | 0.00 | 0.00 | 0.00 | 82 | 1004.1 |
| 20260505185204 | 47 | 82 | 7.8 | 12.2 | 0.00 | 0.00 | 0.00 | 81 | 1004.2 |
| 20260505185105 | 47 | 83 | 7.8 | 12.2 | 0.00 | 0.00 | 0.00 | 82 | 1004.3 |
| 20260505185004 | 47 | 84 | 7.8 | 12.2 | 0.00 | 0.00 | 0.00 | 81 | 1004.0 |
| 20260505184904 | 47 | 83 | 7.8 | 13.0 | 0.00 | 0.00 | 0.00 | 81 | 1004.2 |
| 20260505184804 | 47 | 83 | 7.8 | 13.0 | 0.00 | 0.00 | 0.00 | 81 | 1004.2 |
| 20260505184725 | 47 | 82 | 7.8 | 13.9 | 0.00 | 0.00 | 0.00 | 81 | 1004.2 |
| 20260505184625 | 47 | 84 | 8.7 | 13.9 | 0.00 | 0.00 | 0.00 | 81 | 1004.1 |
| 20260505184504 | 47 | 84 | 8.7 | 13.9 | 0.00 | 0.00 | 0.00 | 81 | 1003.9 |
| 20260505184404 | 47 | 85 | 8.7 | 13.9 | 0.00 | 0.00 | 0.00 | 81 | 1004.2 |
| 20260505184325 | 47 | 86 | 8.7 | 13.9 | 0.00 | 0.00 | 0.00 | 81 | 1004.2 |
| 20260505184204 | 47 | 85 | 8.7 | 13.9 | 0.00 | 0.00 | 0.00 | 82 | 1004.1 |
| 20260505184125 | 47 | 84 | 8.7 | 13.9 | 0.00 | 0.00 | 0.00 | 81 | 1003.9 |
| 20260505184004 | 47 | 82 | 8.7 | 13.9 | 0.00 | 0.00 | 0.00 | 81 | 1004.0 |
| 20260505183904 | 47 | 82 | 9.6 | 13.9 | 0.00 | 0.00 | 0.00 | 81 | 1004.0 |
| 20260505183804 | 47 | 82 | 9.6 | 15.6 | 0.00 | 0.00 | 0.00 | 81 | 1004.0 |
| 20260505183704 | 47 | 84 | 9.6 | 16.5 | 0.00 | 0.00 | 0.00 | 81 | 1004.1 |
| 20260505183604 | 47 | 84 | 9.6 | 16.5 | 0.00 | 0.00 | 0.00 | 81 | 1003.9 |
| 20260505183504 | 47 | 83 | 9.6 | 16.5 | 0.00 | 0.00 | 0.00 | 81 | 1004.1 |
| 20260505183404 | 47 | 83 | 9.6 | 16.5 | 0.00 | 0.00 | 0.00 | 80 | 1004.1 |
| 20260505183304 | 47 | 84 | 9.6 | 16.5 | 0.00 | 0.00 | 0.00 | 80 | 1004.1 |
| 20260505183204 | 47 | 83 | 9.6 | 16.5 | 0.00 | 0.00 | 0.00 | 81 | 1004.1 |
| 20260505183104 | 47 | 85 | 8.7 | 16.5 | 0.00 | 0.00 | 0.00 | 81 | 1004.1 |
| 20260505183004 | 47 | 85 | 9.6 | 16.5 | 0.00 | 0.00 | 0.00 | 80 | 1004.1 |
| 20260505182904 | 47 | 86 | 9.6 | 16.5 | 0.00 | 0.00 | 0.00 | 80 | 1004.3 |
| 20260505182804 | 47 | 87 | 9.6 | 16.5 | 0.00 | 0.00 | 0.00 | 80 | 1004.1 |
| 20260505182704 | 47 | 86 | 8.7 | 16.5 | 0.00 | 0.00 | 0.00 | 80 | 1004.2 |
| 20260505182604 | 47 | 84 | 8.7 | 14.8 | 0.00 | 0.00 | 0.00 | 81 | 1004.2 |
| 20260505182504 | 47 | 85 | 8.7 | 14.8 | 0.00 | 0.00 | 0.00 | 82 | 1004.1 |
| 20260505182404 | 47 | 86 | 8.7 | 14.8 | 0.00 | 0.00 | 0.00 | 82 | 1004.0 |
| 20260505182325 | 47 | 85 | 8.7 | 14.8 | 0.00 | 0.00 | 0.00 | 82 | 1004.1 |
| 20260505182204 | 47 | 85 | 8.7 | 14.8 | 0.00 | 0.00 | 0.00 | 81 | 1004.1 |
| 20260505182104 | 47 | 86 | 8.7 | 14.8 | 0.00 | 0.00 | 0.00 | 81 | 1004.1 |
| 20260505182004 | 47 | 87 | 8.7 | 13.9 | 0.00 | 0.00 | 0.00 | 81 | 1004.0 |
| 20260505181904 | 47 | 86 | 8.7 | 13.0 | 0.00 | 0.00 | 0.00 | 81 | 1004.0 |
| 20260505181804 | 47 | 85 | 8.7 | 13.0 | 0.00 | 0.00 | 0.00 | 81 | 1004.2 |
| 20260505181704 | 47 | 85 | 8.7 | 13.0 | 0.00 | 0.00 | 0.00 | 81 | 1003.9 |
| 20260505181625 | 47 | 85 | 8.7 | 13.0 | 0.00 | 0.00 | 0.00 | 81 | 1004.2 |
| 20260505181504 | 47 | 84 | 8.7 | 13.0 | 0.00 | 0.00 | 0.00 | 81 | 1003.9 |
| 20260505181404 | 47 | 83 | 8.7 | 13.0 | 0.00 | 0.00 | 0.00 | 81 | 1004.1 |
| 20260505181304 | 47 | 84 | 8.7 | 13.0 | 0.00 | 0.00 | 0.00 | 81 | 1004.0 |
| 20260505181204 | 47 | 85 | 8.7 | 13.9 | 0.00 | 0.00 | 0.00 | 80 | 1004.0 |
| 20260505181104 | 47 | 84 | 8.7 | 16.5 | 0.00 | 0.00 | 0.00 | 80 | 1004.1 |
| 20260505181004 | 47 | 83 | 8.7 | 16.5 | 0.00 | 0.00 | 0.00 | 81 | 1004.2 |
| 20260505180904 | 47 | 84 | 9.6 | 16.5 | 0.00 | 0.00 | 0.00 | 80 | 1004.2 |
| 20260505180804 | 47 | 85 | 8.7 | 16.5 | 0.00 | 0.00 | 0.00 | 81 | 1004.1 |
| 20260505180704 | 47 | 85 | 8.7 | 16.5 | 0.00 | 0.00 | 0.00 | 81 | 1004.1 |
| 20260505180604 | 47 | 82 | 8.7 | 16.5 | 0.00 | 0.00 | 0.00 | 81 | 1004.2 |
| 20260505180504 | 47 | 82 | 8.7 | 16.5 | 0.00 | 0.00 | 0.00 | 82 | 1004.0 |
| 20260505180404 | 47 | 82 | 9.6 | 16.5 | 0.00 | 0.00 | 0.00 | 82 | 1004.2 |
| 20260505180304 | 47 | 81 | 9.6 | 16.5 | 0.00 | 0.00 | 0.00 | 81 | 1004.4 |
| 20260505180204 | 47 | 80 | 10.4 | 16.5 | 0.00 | 0.00 | 0.00 | 81 | 1004.1 |
| 20260505180104 | 47 | 79 | 10.4 | 18.2 | 0.00 | 0.00 | 0.00 | 81 | 1004.2 |
| 20260505180004 | 47 | 80 | 10.4 | 18.2 | 0.00 | 0.00 | 0.00 | 81 | 1004.1 |
| 20260505175904 | 47 | 80 | 10.4 | 18.2 | 0.00 | 0.00 | 0.00 | 81 | 1004.2 |
| 20260505175804 | 47 | 78 | 10.4 | 18.2 | 0.00 | 0.00 | 0.00 | 81 | 1004.1 |
| 20260505175704 | 47 | 79 | 10.4 | 18.2 | 0.00 | 0.00 | 0.00 | 80 | 1004.0 |
| 20260505175604 | 47 | 80 | 9.6 | 18.2 | 0.00 | 0.00 | 0.00 | 81 | 1004.3 |
| 20260505175504 | 47 | 80 | 9.6 | 18.2 | 0.00 | 0.00 | 0.00 | 81 | 1004.1 |
| 20260505175404 | 47 | 81 | 9.6 | 18.2 | 0.00 | 0.00 | 0.00 | 81 | 1004.1 |
| 20260505175305 | 47 | 81 | 9.6 | 18.2 | 0.00 | 0.00 | 0.00 | 81 | 1004.2 |
| 20260505175225 | 47 | 80 | 9.6 | 18.2 | 0.00 | 0.00 | 0.00 | 81 | 1004.0 |
| 20260505175104 | 47 | 81 | 9.6 | 18.2 | 0.00 | 0.00 | 0.00 | 80 | 1004.0 |
| 20260505175004 | 48 | 81 | 8.7 | 15.6 | 0.00 | 0.00 | 0.00 | 82 | 1004.1 |
| 20260505174904 | 48 | 79 | 8.7 | 15.6 | 0.00 | 0.00 | 0.00 | 82 | 1004.0 |
| 20260505174804 | 48 | 80 | 8.7 | 15.6 | 0.00 | 0.00 | 0.00 | 81 | 1004.1 |
| 20260505174725 | 48 | 80 | 8.7 | 14.8 | 0.00 | 0.00 | 0.00 | 82 | 1004.0 |
| 20260505174604 | 48 | 79 | 8.7 | 14.8 | 0.00 | 0.00 | 0.00 | 81 | 1004.2 |
| 20260505174525 | 48 | 79 | 9.6 | 14.8 | 0.00 | 0.00 | 0.00 | 81 | 1004.0 |
| 20260505174404 | 48 | 81 | 9.6 | 14.8 | 0.00 | 0.00 | 0.00 | 81 | 1004.0 |
| 20260505174325 | 48 | 81 | 9.6 | 15.6 | 0.00 | 0.00 | 0.00 | 81 | 1004.1 |
| 20260505174204 | 48 | 80 | 9.6 | 15.6 | 0.00 | 0.00 | 0.00 | 82 | 1004.1 |
| 20260505174126 | 48 | 79 | 9.6 | 15.6 | 0.00 | 0.00 | 0.00 | 82 | 1004.0 |
| 20260505174004 | 48 | 79 | 9.6 | 18.2 | 0.00 | 0.00 | 0.00 | 82 | 1003.8 |
| 20260505173925 | 48 | 80 | 9.6 | 18.2 | 0.00 | 0.00 | 0.00 | 82 | 1004.1 |
| 20260505173804 | 48 | 80 | 10.4 | 18.2 | 0.00 | 0.00 | 0.00 | 82 | 1004.1 |
| 20260505173704 | 48 | 78 | 10.4 | 18.2 | 0.00 | 0.00 | 0.00 | 82 | 1004.2 |
| 20260505173604 | 48 | 77 | 10.4 | 18.2 | 0.00 | 0.00 | 0.00 | 83 | 1003.7 |
| 20260505173504 | 48 | 77 | 10.4 | 18.2 | 0.00 | 0.00 | 0.00 | 82 | 1004.2 |
| 20260505173404 | 48 | 75 | 10.4 | 18.2 | 0.00 | 0.00 | 0.00 | 82 | 1004.0 |
| 20260505173304 | 48 | 76 | 10.4 | 18.2 | 0.00 | 0.00 | 0.00 | 81 | 1004.1 |
| 20260505173205 | 48 | 77 | 10.4 | 18.2 | 0.00 | 0.00 | 0.00 | 82 | 1003.8 |
| 20260505173104 | 48 | 79 | 10.4 | 18.2 | 0.00 | 0.00 | 0.00 | 82 | 1003.8 |
| 20260505173004 | 48 | 79 | 9.6 | 18.2 | 0.00 | 0.00 | 0.00 | 82 | 1004.0 |
| 20260505172904 | 48 | 78 | 9.6 | 18.2 | 0.00 | 0.00 | 0.00 | 82 | 1004.2 |
| 20260505172804 | 49 | 77 | 9.6 | 14.8 | 0.00 | 0.00 | 0.00 | 83 | 1003.9 |
| 20260505172704 | 49 | 80 | 9.6 | 16.5 | 0.00 | 0.00 | 0.00 | 83 | 1004.1 |
| 20260505172625 | 49 | 81 | 9.6 | 16.5 | 0.00 | 0.00 | 0.00 | 84 | 1003.7 |
| 20260505172505 | 49 | 81 | 10.4 | 18.2 | 0.00 | 0.00 | 0.00 | 84 | 1003.8 |
| 20260505172404 | 49 | 83 | 10.4 | 18.2 | 0.00 | 0.00 | 0.00 | 84 | 1004.0 |
| 20260505172306 | 49 | 82 | 10.4 | 18.2 | 0.00 | 0.00 | 0.00 | 84 | 1004.0 |
| 20260505172204 | 49 | 80 | 10.4 | 18.2 | 0.00 | 0.00 | 0.00 | 84 | 1004.0 |
| 20260505172104 | 49 | 79 | 10.4 | 18.2 | 0.00 | 0.00 | 0.00 | 83 | 1003.9 |
| 20260505172004 | 49 | 79 | 10.4 | 18.2 | 0.00 | 0.00 | 0.00 | 83 | 1004.0 |
| 20260505171904 | 48 | 80 | 10.4 | 18.2 | 0.00 | 0.00 | 0.00 | 83 | 1003.9 |
| 20260505171804 | 48 | 82 | 10.4 | 18.2 | 0.00 | 0.00 | 0.00 | 83 | 1004.1 |
| 20260505171704 | 48 | 81 | 11.3 | 18.2 | 0.00 | 0.00 | 0.00 | 82 | 1004.0 |
| 20260505171604 | 49 | 83 | 11.3 | 18.2 | 0.00 | 0.00 | 0.00 | 82 | 1003.8 |
| 20260505171504 | 49 | 85 | 10.4 | 18.2 | 0.00 | 0.00 | 0.00 | 82 | 1003.8 |
| 20260505171425 | 49 | 85 | 10.4 | 18.2 | 0.00 | 0.00 | 0.00 | 82 | 1003.7 |
| 20260505171304 | 49 | 85 | 10.4 | 16.5 | 0.00 | 0.00 | 0.00 | 83 | 1003.9 |
| 20260505171204 | 49 | 86 | 10.4 | 16.5 | 0.00 | 0.00 | 0.00 | 83 | 1003.6 |
| 20260505171104 | 49 | 87 | 10.4 | 16.5 | 0.00 | 0.00 | 0.00 | 83 | 1003.8 |
| 20260505171004 | 49 | 85 | 11.3 | 19.1 | 0.00 | 0.00 | 0.00 | 82 | 1003.8 |
| 20260505170904 | 49 | 86 | 11.3 | 19.1 | 0.00 | 0.00 | 0.00 | 82 | 1003.7 |
| 20260505170826 | 49 | 85 | 11.3 | 19.1 | 0.00 | 0.00 | 0.00 | 82 | 1003.9 |
| 20260505170704 | 49 | 84 | 11.3 | 19.1 | 0.00 | 0.00 | 0.00 | 82 | 1003.8 |
| 20260505170604 | 49 | 81 | 11.3 | 19.1 | 0.00 | 0.00 | 0.00 | 82 | 1003.7 |
| 20260505170504 | 49 | 79 | 11.3 | 19.1 | 0.00 | 0.00 | 0.00 | 82 | 1004.1 |
| 20260505170404 | 49 | 78 | 11.3 | 19.1 | 0.00 | 0.00 | 0.00 | 82 | 1003.8 |
| 20260505170325 | 49 | 77 | 12.2 | 19.1 | 0.00 | 0.00 | 0.00 | 82 | 1004.0 |
| 20260505170204 | 49 | 75 | 12.2 | 19.1 | 0.00 | 0.00 | 0.00 | 83 | 1003.7 |
| 20260505170104 | 49 | 76 | 12.2 | 19.1 | 0.00 | 0.00 | 0.00 | 83 | 1004.0 |
| 20260505170004 | 49 | 76 | 12.2 | 19.1 | 0.00 | 0.00 | 0.00 | 82 | 1003.9 |
| 20260505165904 | 49 | 76 | 12.2 | 19.1 | 0.00 | 0.00 | 0.00 | 82 | 1003.9 |
| 20260505165804 | 50 | 76 | 12.2 | 19.1 | 0.00 | 0.00 | 0.00 | 82 | 1003.8 |
| 20260505165704 | 50 | 76 | 11.3 | 19.1 | 0.00 | 0.00 | 0.00 | 81 | 1003.7 |
| 20260505165604 | 50 | 78 | 11.3 | 19.1 | 0.00 | 0.00 | 0.00 | 82 | 1003.8 |
| 20260505165504 | 50 | 80 | 11.3 | 19.1 | 0.00 | 0.00 | 0.00 | 82 | 1003.9 |
| 20260505165404 | 50 | 83 | 11.3 | 19.1 | 0.00 | 0.00 | 0.00 | 83 | 1003.9 |
| 20260505165306 | 50 | 84 | 11.3 | 19.1 | 0.00 | 0.00 | 0.00 | 84 | 1003.8 |
| 20260505165204 | 50 | 86 | 11.3 | 19.1 | 0.00 | 0.00 | 0.00 | 84 | 1003.8 |
| 20260505165104 | 50 | 86 | 11.3 | 19.1 | 0.00 | 0.00 | 0.00 | 84 | 1003.7 |
| 20260505165004 | 50 | 87 | 11.3 | 19.1 | 0.00 | 0.00 | 0.00 | 83 | 1003.9 |
| 20260505164925 | 50 | 87 | 11.3 | 18.2 | 0.00 | 0.00 | 0.00 | 83 | 1003.8 |
| 20260505164804 | 50 | 87 | 11.3 | 16.5 | 0.00 | 0.00 | 0.00 | 84 | 1003.7 |
| 20260505164704 | 49 | 87 | 11.3 | 16.5 | 0.00 | 0.00 | 0.00 | 84 | 1003.9 |
| 20260505164604 | 49 | 88 | 11.3 | 16.5 | 0.00 | 0.00 | 0.00 | 84 | 1003.9 |
| 20260505164504 | 49 | 87 | 11.3 | 16.5 | 0.00 | 0.00 | 0.00 | 84 | 1003.8 |
| 20260505164425 | 49 | 86 | 11.3 | 16.5 | 0.00 | 0.00 | 0.00 | 84 | 1003.8 |
| 20260505164304 | 49 | 85 | 11.3 | 16.5 | 0.00 | 0.00 | 0.00 | 83 | 1003.7 |
| 20260505164204 | 49 | 85 | 11.3 | 15.6 | 0.00 | 0.00 | 0.00 | 83 | 1003.9 |
| 20260505164104 | 49 | 84 | 11.3 | 15.6 | 0.00 | 0.00 | 0.00 | 84 | 1003.9 |
| 20260505164004 | 49 | 83 | 10.4 | 15.6 | 0.00 | 0.00 | 0.00 | 84 | 1003.8 |
| 20260505163904 | 49 | 83 | 10.4 | 15.6 | 0.00 | 0.00 | 0.00 | 84 | 1003.8 |
| 20260505163804 | 49 | 83 | 10.4 | 14.8 | 0.00 | 0.00 | 0.00 | 84 | 1003.9 |
| 20260505163704 | 49 | 84 | 10.4 | 14.8 | 0.00 | 0.00 | 0.00 | 84 | 1004.0 |
| 20260505163604 | 49 | 82 | 10.4 | 14.8 | 0.00 | 0.00 | 0.00 | 85 | 1003.9 |
| 20260505163504 | 49 | 83 | 10.4 | 15.6 | 0.00 | 0.00 | 0.00 | 85 | 1003.8 |
| 20260505163404 | 49 | 84 | 9.6 | 15.6 | 0.00 | 0.00 | 0.00 | 86 | 1003.8 |
| 20260505163304 | 49 | 81 | 10.4 | 15.6 | 0.00 | 0.00 | 0.00 | 86 | 1003.9 |
| 20260505163204 | 49 | 79 | 9.6 | 15.6 | 0.00 | 0.00 | 0.00 | 87 | 1004.0 |
| 20260505163104 | 49 | 80 | 9.6 | 15.6 | 0.00 | 0.00 | 0.00 | 87 | 1003.9 |
| 20260505163004 | 49 | 81 | 9.6 | 15.6 | 0.00 | 0.00 | 0.00 | 87 | 1003.6 |
| 20260505162904 | 49 | 80 | 10.4 | 15.6 | 0.00 | 0.00 | 0.00 | 87 | 1003.8 |
| 20260505162804 | 49 | 81 | 10.4 | 15.6 | 0.00 | 0.00 | 0.00 | 88 | 1003.5 |
| 20260505162704 | 49 | 81 | 10.4 | 15.6 | 0.00 | 0.00 | 0.00 | 88 | 1003.9 |
| 20260505162604 | 49 | 80 | 10.4 | 15.6 | 0.00 | 0.00 | 0.00 | 88 | 1003.7 |
| 20260505162504 | 49 | 80 | 10.4 | 15.6 | 0.00 | 0.00 | 0.00 | 88 | 1003.8 |
| 20260505162404 | 49 | 79 | 10.4 | 15.6 | 0.00 | 0.00 | 0.00 | 87 | 1003.7 |
| 20260505162306 | 49 | 80 | 10.4 | 15.6 | 0.00 | 0.00 | 0.00 | 87 | 1003.8 |
| 20260505162204 | 50 | 81 | 10.4 | 15.6 | 0.00 | 0.00 | 0.00 | 87 | 1003.9 |
| 20260505162104 | 50 | 78 | 11.3 | 15.6 | 0.00 | 0.00 | 0.00 | 87 | 1003.8 |
| 20260505162004 | 50 | 77 | 11.3 | 16.5 | 0.00 | 0.00 | 0.00 | 86 | 1003.8 |
| 20260505161904 | 50 | 76 | 11.3 | 16.5 | 0.00 | 0.00 | 0.00 | 86 | 1003.6 |
| 20260505161804 | 50 | 75 | 11.3 | 16.5 | 0.00 | 0.00 | 0.00 | 86 | 1003.6 |
| 20260505161704 | 50 | 73 | 11.3 | 16.5 | 0.00 | 0.00 | 0.00 | 86 | 1003.7 |
| 20260505161604 | 50 | 71 | 11.3 | 16.5 | 0.00 | 0.00 | 0.00 | 85 | 1003.6 |
| 20260505161525 | 50 | 70 | 11.3 | 16.5 | 0.00 | 0.00 | 0.00 | 85 | 1003.6 |
| 20260505161425 | 50 | 71 | 10.4 | 16.5 | 0.00 | 0.00 | 0.00 | 85 | 1003.7 |
| 20260505161325 | 50 | 71 | 10.4 | 16.5 | 0.00 | 0.00 | 0.00 | 86 | 1003.7 |
| 20260505161204 | 50 | 71 | 11.3 | 16.5 | 0.00 | 0.00 | 0.00 | 84 | 1003.7 |
| 20260505161104 | 50 | 74 | 11.3 | 16.5 | 0.00 | 0.00 | 0.00 | 85 | 1003.5 |
| 20260505161004 | 50 | 75 | 11.3 | 16.5 | 0.00 | 0.00 | 0.00 | 84 | 1003.6 |
| 20260505160904 | 50 | 77 | 11.3 | 16.5 | 0.00 | 0.00 | 0.00 | 84 | 1003.4 |
| 20260505160804 | 50 | 78 | 11.3 | 16.5 | 0.00 | 0.00 | 0.00 | 85 | 1003.5 |
| 20260505160704 | 50 | 79 | 11.3 | 16.5 | 0.00 | 0.00 | 0.00 | 85 | 1003.6 |
| 20260505160604 | 49 | 79 | 11.3 | 16.5 | 0.00 | 0.00 | 0.00 | 86 | 1003.4 |
| 20260505160504 | 49 | 77 | 11.3 | 19.1 | 0.00 | 0.00 | 0.00 | 85 | 1003.5 |
| 20260505160404 | 49 | 76 | 11.3 | 19.1 | 0.00 | 0.00 | 0.00 | 85 | 1003.5 |
| 20260505160304 | 49 | 75 | 11.3 | 19.1 | 0.00 | 0.00 | 0.00 | 85 | 1003.5 |
| 20260505160225 | 49 | 76 | 12.2 | 19.1 | 0.00 | 0.00 | 0.00 | 85 | 1003.3 |
| 20260505160104 | 49 | 74 | 11.3 | 19.1 | 0.00 | 0.00 | 0.00 | 86 | 1003.6 |
| 20260505153304 | 49 | 76 | 11.3 | 16.5 | 0.00 | 0.00 | 0.00 | 86 | 1003.6 |
| 20260505153204 | 50 | 75 | 11.3 | 16.5 | 0.00 | 0.00 | 0.00 | 86 | 1003.5 |
| 20260505153125 | 50 | 74 | 10.4 | 16.5 | 0.00 | 0.00 | 0.00 | 86 | 1003.5 |
| 20260505153004 | 50 | 73 | 10.4 | 16.5 | 0.00 | 0.00 | 0.00 | 86 | 1003.4 |
| 20260505152904 | 50 | 74 | 9.6 | 16.5 | 0.00 | 0.00 | 0.00 | 86 | 1003.4 |
| 20260505152804 | 50 | 75 | 8.7 | 15.6 | 0.00 | 0.00 | 0.00 | 87 | 1003.3 |
| 20260505152704 | 51 | 73 | 8.7 | 15.6 | 0.00 | 0.00 | 0.00 | 86 | 1003.5 |
| 20260505152604 | 51 | 70 | 7.8 | 15.6 | 0.00 | 0.00 | 0.00 | 85 | 1003.7 |
| 20260505152525 | 51 | 70 | 7.0 | 15.6 | 0.00 | 0.00 | 0.00 | 84 | 1003.5 |
| 20260505152404 | 52 | 65 | 6.1 | 15.6 | 0.00 | 0.00 | 0.00 | 84 | 1003.5 |
| 20260505152305 | 52 | 65 | 5.2 | 15.6 | 0.00 | 0.00 | 0.00 | 83 | 1003.5 |
| 20260505152204 | 52 | 56 | 4.3 | 13.0 | 0.00 | 0.00 | 0.00 | 83 | 1003.4 |
| 20260505152125 | 52 | 53 | 4.3 | 13.0 | 0.00 | 0.00 | 0.00 | 82 | 1003.3 |
| 20260505152004 | 53 | 42 | 3.5 | 13.0 | 0.00 | 0.00 | 0.00 | 80 | 1003.2 |
| 20260505151904 | 53 | 35 | 3.5 | 7.8 | 0.00 | 0.00 | 0.00 | 78 | 1003.3 |
| 20260505151825 | 53 | 28 | 3.5 | 7.0 | 0.00 | 0.00 | 0.00 | 78 | 1003.5 |
| 20260505151704 | 53 | 29 | 3.5 | 7.0 | 0.00 | 0.00 | 0.00 | 77 | 1003.4 |
| 20260505151604 | 53 | 29 | 3.5 | 7.0 | 0.00 | 0.00 | 0.00 | 79 | 1003.3 |
| 20260505151504 | 53 | 24 | 3.5 | 9.6 | 0.00 | 0.00 | 0.00 | 78 | 1003.4 |
| 20260505151404 | 53 | 24 | 3.5 | 9.6 | 0.00 | 0.00 | 0.00 | 78 | 1003.3 |
| 20260505151304 | 53 | 26 | 3.5 | 9.6 | 0.00 | 0.00 | 0.00 | 77 | 1003.4 |
| 20260505151225 | 53 | 29 | 3.5 | 9.6 | 0.00 | 0.00 | 0.00 | 77 | 1003.2 |
| 20260505151125 | 53 | 30 | 3.5 | 9.6 | 0.00 | 0.00 | 0.00 | 76 | 1003.6 |
| 20260505151004 | 53 | 33 | 3.5 | 9.6 | 0.00 | 0.00 | 0.00 | 78 | 1003.4 |
| 20260505150904 | 53 | 33 | 3.5 | 9.6 | 0.00 | 0.00 | 0.00 | 79 | 1003.5 |
| 20260505150804 | 53 | 31 | 3.5 | 9.6 | 0.00 | 0.00 | 0.00 | 79 | 1003.5 |
| 20260505150704 | 53 | 30 | 4.3 | 9.6 | 0.00 | 0.00 | 0.00 | 79 | 1003.3 |
| 20260505150604 | 53 | 27 | 4.3 | 9.6 | 0.00 | 0.00 | 0.00 | 79 | 1003.3 |
| 20260505150504 | 53 | 26 | 3.5 | 9.6 | 0.00 | 0.00 | 0.00 | 78 | 1003.4 |
| 20260505150404 | 54 | 25 | 3.5 | 8.7 | 0.00 | 0.00 | 0.00 | 79 | 1003.5 |
| 20260505150325 | 54 | 23 | 3.5 | 8.7 | 0.00 | 0.00 | 0.00 | 78 | 1003.7 |
| 20260505150225 | 54 | 24 | 3.5 | 8.7 | 0.00 | 0.00 | 0.00 | 79 | 1003.4 |
| 20260505150104 | 54 | 23 | 3.5 | 8.7 | 0.00 | 0.00 | 0.00 | 79 | 1003.5 |
| 20260505140604 | 53 | 36 | 1.7 | 5.2 | 0.00 | 0.00 | 0.00 | 78 | 1003.3 |
| 20260505140504 | 53 | 37 | 1.7 | 5.2 | 0.00 | 0.00 | 0.00 | 77 | 1003.2 |
| 20260505140404 | 53 | 37 | 1.7 | 5.2 | 0.00 | 0.00 | 0.00 | 77 | 1003.5 |
| 20260505140304 | 53 | 34 | 1.7 | 5.2 | 0.00 | 0.00 | 0.00 | 76 | 1003.5 |
| 20260505140204 | 53 | 37 | 1.7 | 5.2 | 0.00 | 0.00 | 0.00 | 75 | 1003.3 |
| 20260505140104 | 53 | 38 | 1.7 | 5.2 | 0.00 | 0.00 | 0.00 | 75 | 1003.5 |
| 20260505130304 | 55 | 281 | 1.7 | 7.0 | 0.00 | 0.00 | 0.00 | 70 | 1003.5 |
| 20260505130204 | 55 | 281 | 1.7 | 7.0 | 0.00 | 0.00 | 0.00 | 69 | 1003.4 |
| 20260505130104 | 55 | 300 | 0.9 | 7.0 | 0.00 | 0.00 | 0.00 | 69 | 1003.2 |
| 20260505125004 | 56 | 293 | 0.9 | 3.5 | 0.00 | 0.00 | 0.00 | 66 | 1003.5 |
| 20260505124904 | 56 | 289 | 0.9 | 5.2 | 0.00 | 0.00 | 0.00 | 67 | 1003.4 |
| 20260505124804 | 55 | 282 | 0.9 | 5.2 | 0.00 | 0.00 | 0.00 | 70 | 1003.6 |
| 20260505124704 | 55 | 279 | 0.9 | 5.2 | 0.00 | 0.00 | 0.00 | 68 | 1003.3 |
| 20260505124604 | 55 | 278 | 1.7 | 5.2 | 0.00 | 0.00 | 0.00 | 67 | 1003.4 |
| 20260505124525 | 55 | 284 | 1.7 | 5.2 | 0.00 | 0.00 | 0.00 | 67 | 1003.5 |
| 20260505124404 | 55 | 295 | 1.7 | 5.2 | 0.00 | 0.00 | 0.00 | 69 | 1003.2 |
| 20260505124304 | 55 | 289 | 1.7 | 5.2 | 0.00 | 0.00 | 0.00 | 68 | 1003.5 |
| 20260505124204 | 55 | 292 | 1.7 | 5.2 | 0.00 | 0.00 | 0.00 | 68 | 1003.3 |
| 20260505124125 | 55 | 294 | 1.7 | 5.2 | 0.00 | 0.00 | 0.00 | 69 | 1003.5 |
| 20260505124025 | 54 | 291 | 1.7 | 5.2 | 0.00 | 0.00 | 0.00 | 70 | 1003.2 |
| 20260505123925 | 54 | 278 | 1.7 | 5.2 | 0.00 | 0.00 | 0.00 | 71 | 1003.5 |
| 20260505123804 | 54 | 309 | 1.7 | 5.2 | 0.00 | 0.00 | 0.00 | 70 | 1003.4 |
| 20260505123704 | 54 | 342 | 1.7 | 5.2 | 0.00 | 0.00 | 0.00 | 71 | 1003.4 |
| 20260505123604 | 54 | 3 | 1.7 | 5.2 | 0.00 | 0.00 | 0.00 | 70 | 1003.6 |
| 20260505123525 | 54 | 3 | 1.7 | 5.2 | 0.00 | 0.00 | 0.00 | 71 | 1003.4 |
| 20260505123404 | 53 | 9 | 1.7 | 5.2 | 0.00 | 0.00 | 0.00 | 71 | 1003.4 |
| 20260505123325 | 53 | 7 | 1.7 | 5.2 | 0.00 | 0.00 | 0.00 | 72 | 1003.3 |
| 20260505123204 | 53 | 16 | 1.7 | 8.7 | 0.00 | 0.00 | 0.00 | 70 | 1003.3 |
| 20260505123104 | 53 | 18 | 2.6 | 8.7 | 0.00 | 0.00 | 0.00 | 71 | 1003.6 |
| 20260505123004 | 53 | 16 | 2.6 | 8.7 | 0.00 | 0.00 | 0.00 | 72 | 1003.5 |
| 20260505122904 | 54 | 12 | 2.6 | 8.7 | 0.00 | 0.00 | 0.00 | 72 | 1003.5 |
| 20260505122804 | 54 | 1 | 2.6 | 8.7 | 0.00 | 0.00 | 0.00 | 70 | 1003.5 |
| 20260505122704 | 54 | 349 | 2.6 | 8.7 | 0.00 | 0.00 | 0.00 | 72 | 1003.5 |
| 20260505122604 | 54 | 348 | 2.6 | 8.7 | 0.00 | 0.00 | 0.00 | 72 | 1003.4 |
| 20260505122504 | 54 | 332 | 2.6 | 8.7 | 0.00 | 0.00 | 0.00 | 71 | 1003.6 |
| 20260505122404 | 54 | 322 | 2.6 | 8.7 | 0.00 | 0.00 | 0.00 | 71 | 1003.6 |
| 20260505122305 | 54 | 314 | 2.6 | 8.7 | 0.00 | 0.00 | 0.00 | 71 | 1003.3 |
| 20260505122204 | 54 | 295 | 1.7 | 8.7 | 0.00 | 0.00 | 0.00 | 70 | 1003.6 |
| 20260505122104 | 54 | 279 | 1.7 | 7.0 | 0.00 | 0.00 | 0.00 | 70 | 1003.2 |
| 20260505122004 | 54 | 275 | 1.7 | 7.0 | 0.00 | 0.00 | 0.00 | 71 | 1003.6 |
| 20260505121904 | 54 | 281 | 1.7 | 7.0 | 0.00 | 0.00 | 0.00 | 71 | 1003.6 |
| 20260505121804 | 54 | 286 | 1.7 | 7.0 | 0.00 | 0.00 | 0.00 | 71 | 1003.5 |
| 20260505121704 | 54 | 296 | 1.7 | 7.0 | 0.00 | 0.00 | 0.00 | 72 | 1003.5 |
| 20260505121604 | 54 | 291 | 1.7 | 7.0 | 0.00 | 0.00 | 0.00 | 71 | 1003.6 |
| 20260505121504 | 54 | 295 | 1.7 | 7.0 | 0.00 | 0.00 | 0.00 | 70 | 1003.6 |
| 20260505121404 | 54 | 293 | 1.7 | 7.0 | 0.00 | 0.00 | 0.00 | 72 | 1003.6 |
| 20260505121304 | 54 | 280 | 1.7 | 7.8 | 0.00 | 0.00 | 0.00 | 71 | 1003.5 |
| 20260505121225 | 54 | 279 | 2.6 | 7.8 | 0.00 | 0.00 | 0.00 | 71 | 1003.6 |
| 20260505121104 | 54 | 287 | 2.6 | 7.8 | 0.00 | 0.00 | 0.00 | 68 | 1003.6 |
| 20260505121004 | 54 | 290 | 2.6 | 7.8 | 0.00 | 0.00 | 0.00 | 69 | 1003.6 |
| 20260505120904 | 54 | 291 | 2.6 | 7.8 | 0.00 | 0.00 | 0.00 | 71 | 1003.5 |
| 20260505120804 | 54 | 300 | 1.7 | 7.8 | 0.00 | 0.00 | 0.00 | 70 | 1003.5 |
| 20260505120704 | 54 | 297 | 2.6 | 7.8 | 0.00 | 0.00 | 0.00 | 69 | 1003.5 |
| 20260505120604 | 54 | 312 | 1.7 | 7.8 | 0.00 | 0.00 | 0.00 | 70 | 1003.5 |
| 20260505120525 | 54 | 321 | 2.6 | 7.8 | 0.00 | 0.00 | 0.00 | 69 | 1003.5 |
| 20260505120404 | 54 | 354 | 2.6 | 7.8 | 0.00 | 0.00 | 0.00 | 71 | 1003.5 |
| 20260505120304 | 54 | 7 | 2.6 | 7.8 | 0.00 | 0.00 | 0.00 | 70 | 1003.6 |
| 20260505120204 | 55 | 20 | 2.6 | 7.8 | 0.00 | 0.00 | 0.00 | 69 | 1003.4 |
| 20260505120104 | 54 | 27 | 2.6 | 7.8 | 0.00 | 0.00 | 0.00 | 69 | 1003.4 |
| 20260505120005 | 54 | 26 | 2.6 | 7.8 | 0.00 | 0.00 | 0.00 | 72 | 1003.7 |
| 20260505115904 | 54 | 26 | 2.6 | 7.8 | 0.00 | 0.00 | 0.00 | 70 | 1003.5 |
| 20260505115804 | 53 | 26 | 2.6 | 7.8 | 0.00 | 0.00 | 0.00 | 70 | 1003.5 |
| 20260505115725 | 53 | 26 | 3.5 | 7.8 | 0.00 | 0.00 | 0.00 | 69 | 1003.6 |
| 20260505115604 | 53 | 27 | 3.5 | 7.8 | 0.00 | 0.00 | 0.00 | 70 | 1003.3 |
| 20260505115504 | 53 | 28 | 3.5 | 7.8 | 0.00 | 0.00 | 0.00 | 69 | 1003.5 |
| 20260505115404 | 53 | 27 | 3.5 | 7.8 | 0.00 | 0.00 | 0.00 | 69 | 1003.5 |
| 20260505115305 | 54 | 27 | 2.6 | 7.8 | 0.00 | 0.00 | 0.00 | 68 | 1003.5 |
| 20260505115204 | 53 | 26 | 2.6 | 7.8 | 0.00 | 0.00 | 0.00 | 69 | 1003.3 |
| 20260505115125 | 53 | 27 | 2.6 | 7.8 | 0.00 | 0.00 | 0.00 | 69 | 1003.5 |
| 20260505115004 | 53 | 30 | 2.6 | 7.8 | 0.00 | 0.00 | 0.00 | 67 | 1003.6 |
| 20260505114925 | 53 | 30 | 3.5 | 7.8 | 0.00 | 0.00 | 0.00 | 66 | 1003.5 |
| 20260505114825 | 53 | 28 | 2.6 | 7.0 | 0.00 | 0.00 | 0.00 | 68 | 1003.4 |
| 20260505114704 | 53 | 23 | 2.6 | 7.0 | 0.00 | 0.00 | 0.00 | 68 | 1003.5 |
| 20260505114604 | 53 | 25 | 2.6 | 7.0 | 0.00 | 0.00 | 0.00 | 68 | 1003.7 |
| 20260505114504 | 53 | 21 | 3.5 | 7.0 | 0.00 | 0.00 | 0.00 | 67 | 1003.5 |
| 20260505114404 | 53 | 21 | 2.6 | 7.0 | 0.00 | 0.00 | 0.00 | 68 | 1003.6 |
| 20260505114304 | 53 | 22 | 3.5 | 7.0 | 0.00 | 0.00 | 0.00 | 66 | 1003.5 |
| 20260505114204 | 53 | 23 | 2.6 | 7.0 | 0.00 | 0.00 | 0.00 | 68 | 1003.4 |
| 20260505114104 | 53 | 24 | 2.6 | 7.0 | 0.00 | 0.00 | 0.00 | 68 | 1003.4 |
| 20260505114004 | 53 | 21 | 3.5 | 7.0 | 0.00 | 0.00 | 0.00 | 68 | 1003.7 |
| 20260505113904 | 53 | 20 | 2.6 | 7.0 | 0.00 | 0.00 | 0.00 | 67 | 1003.6 |
| 20260505113804 | 53 | 20 | 2.6 | 7.0 | 0.00 | 0.00 | 0.00 | 68 | 1003.4 |
| 20260505113704 | 53 | 20 | 2.6 | 7.0 | 0.00 | 0.00 | 0.00 | 67 | 1003.4 |
| 20260505113604 | 53 | 21 | 2.6 | 6.1 | 0.00 | 0.00 | 0.00 | 66 | 1003.5 |
| 20260505113504 | 54 | 20 | 2.6 | 6.1 | 0.00 | 0.00 | 0.00 | 65 | 1003.5 |
| 20260505113404 | 54 | 20 | 2.6 | 6.1 | 0.00 | 0.00 | 0.00 | 64 | 1003.4 |
| 20260505113304 | 54 | 20 | 2.6 | 6.1 | 0.00 | 0.00 | 0.00 | 65 | 1003.7 |
| 20260505113225 | 54 | 19 | 2.6 | 6.1 | 0.00 | 0.00 | 0.00 | 66 | 1003.5 |
| 20260505113104 | 54 | 20 | 2.6 | 7.8 | 0.00 | 0.00 | 0.00 | 68 | 1003.5 |
| 20260505113004 | 53 | 23 | 2.6 | 7.8 | 0.00 | 0.00 | 0.00 | 69 | 1003.4 |
| 20260505112904 | 53 | 27 | 3.5 | 7.8 | 0.00 | 0.00 | 0.00 | 69 | 1003.6 |
| 20260505112804 | 53 | 28 | 3.5 | 7.8 | 0.00 | 0.00 | 0.00 | 70 | 1003.5 |
| 20260505112704 | 52 | 30 | 3.5 | 7.8 | 0.00 | 0.00 | 0.00 | 70 | 1003.6 |
| 20260505112604 | 52 | 30 | 3.5 | 7.8 | 0.00 | 0.00 | 0.00 | 71 | 1003.6 |
| 20260505112504 | 52 | 31 | 3.5 | 7.8 | 0.00 | 0.00 | 0.00 | 71 | 1003.4 |
| 20260505112403 | 52 | 30 | 3.5 | 7.8 | 0.00 | 0.00 | 0.00 | 70 | 1003.5 |
| 20260505112305 | 52 | 31 | 3.5 | 7.8 | 0.00 | 0.00 | 0.00 | 69 | 1003.4 |
| 20260505112204 | 52 | 31 | 3.5 | 7.8 | 0.00 | 0.00 | 0.00 | 70 | 1003.6 |
| 20260505112104 | 52 | 33 | 3.5 | 7.8 | 0.00 | 0.00 | 0.00 | 70 | 1003.5 |
| 20260505112004 | 52 | 31 | 2.6 | 7.8 | 0.00 | 0.00 | 0.00 | 71 | 1003.5 |
| 20260505111904 | 53 | 25 | 2.6 | 7.8 | 0.00 | 0.00 | 0.00 | 70 | 1003.5 |
| 20260505111804 | 53 | 24 | 3.5 | 7.8 | 0.00 | 0.00 | 0.00 | 70 | 1003.5 |
| 20260505111704 | 53 | 25 | 3.5 | 7.8 | 0.00 | 0.00 | 0.00 | 70 | 1003.7 |
| 20260505111604 | 53 | 24 | 3.5 | 7.8 | 0.00 | 0.00 | 0.00 | 71 | 1003.4 |
| 20260505111504 | 53 | 24 | 3.5 | 7.0 | 0.00 | 0.00 | 0.00 | 72 | 1003.5 |
| 20260505111404 | 53 | 20 | 3.5 | 9.6 | 0.00 | 0.00 | 0.00 | 71 | 1003.4 |
| 20260505111304 | 53 | 18 | 3.5 | 9.6 | 0.00 | 0.00 | 0.00 | 69 | 1003.4 |
| 20260505111204 | 53 | 21 | 2.6 | 9.6 | 0.00 | 0.00 | 0.00 | 73 | 1003.5 |
| 20260505111104 | 53 | 12 | 2.6 | 9.6 | 0.00 | 0.00 | 0.00 | 71 | 1003.7 |
| 20260505111004 | 54 | 8 | 2.6 | 9.6 | 0.00 | 0.00 | 0.00 | 71 | 1003.7 |
| 20260505110904 | 54 | 9 | 2.6 | 9.6 | 0.00 | 0.00 | 0.00 | 69 | 1003.3 |
| 20260505110804 | 54 | 9 | 2.6 | 9.6 | 0.00 | 0.00 | 0.00 | 69 | 1003.7 |
| 20260505110704 | 54 | 9 | 1.7 | 9.6 | 0.00 | 0.00 | 0.00 | 72 | 1003.6 |
| 20260505110604 | 54 | 8 | 1.7 | 9.6 | 0.00 | 0.00 | 0.00 | 71 | 1003.5 |
| 20260505110504 | 55 | 8 | 1.7 | 9.6 | 0.00 | 0.00 | 0.00 | 68 | 1003.5 |
| 20260505110404 | 55 | 5 | 1.7 | 9.6 | 0.00 | 0.00 | 0.00 | 70 | 1003.5 |
| 20260505110304 | 55 | 355 | 1.7 | 7.0 | 0.00 | 0.00 | 0.00 | 70 | 1003.4 |
| 20260505110225 | 54 | 351 | 1.7 | 7.0 | 0.00 | 0.00 | 0.00 | 70 | 1003.5 |
| 20260505110104 | 54 | 324 | 1.7 | 7.0 | 0.00 | 0.00 | 0.00 | 70 | 1003.6 |
| 20260505102204 | 52 | 338 | 2.6 | 6.1 | 0.00 | 0.00 | 0.00 | 76 | 1003.6 |
| 20260505102104 | 52 | 337 | 2.6 | 6.1 | 0.00 | 0.00 | 0.00 | 76 | 1003.7 |
| 20260505102025 | 52 | 339 | 2.6 | 6.1 | 0.00 | 0.00 | 0.00 | 75 | 1003.6 |
| 20260505101904 | 52 | 354 | 2.6 | 6.1 | 0.00 | 0.00 | 0.00 | 77 | 1003.6 |
| 20260505101804 | 52 | 349 | 2.6 | 7.0 | 0.00 | 0.00 | 0.00 | 75 | 1003.7 |
| 20260505101725 | 52 | 348 | 2.6 | 7.0 | 0.00 | 0.00 | 0.00 | 75 | 1003.8 |
| 20260505101604 | 53 | 306 | 1.7 | 7.0 | 0.00 | 0.00 | 0.00 | 73 | 1003.8 |
| 20260505101504 | 53 | 292 | 1.7 | 7.0 | 0.00 | 0.00 | 0.00 | 77 | 1003.7 |
| 20260505101404 | 53 | 286 | 2.6 | 7.0 | 0.00 | 0.00 | 0.00 | 77 | 1003.5 |
| 20260505101304 | 53 | 290 | 2.6 | 7.0 | 0.00 | 0.00 | 0.00 | 76 | 1003.8 |
| 20260505101204 | 53 | 289 | 2.6 | 7.0 | 0.00 | 0.00 | 0.00 | 75 | 1003.8 |
| 20260505101104 | 53 | 286 | 2.6 | 7.0 | 0.00 | 0.00 | 0.00 | 76 | 1003.5 |
| 20260505101004 | 52 | 290 | 2.6 | 7.0 | 0.00 | 0.00 | 0.00 | 77 | 1003.7 |
| 20260505100904 | 52 | 295 | 2.6 | 7.0 | 0.00 | 0.00 | 0.00 | 78 | 1003.7 |
| 20260505100804 | 51 | 290 | 2.6 | 7.0 | 0.00 | 0.00 | 0.00 | 78 | 1003.9 |
| 20260505100704 | 51 | 288 | 2.6 | 7.0 | 0.00 | 0.00 | 0.00 | 77 | 1003.8 |
| 20260505100604 | 51 | 291 | 2.6 | 7.0 | 0.00 | 0.00 | 0.00 | 77 | 1003.9 |
| 20260505100504 | 52 | 291 | 2.6 | 7.0 | 0.00 | 0.00 | 0.00 | 77 | 1003.9 |
| 20260505100404 | 52 | 304 | 1.7 | 7.0 | 0.00 | 0.00 | 0.00 | 77 | 1003.8 |
| 20260505100304 | 52 | 318 | 2.6 | 8.7 | 0.00 | 0.00 | 0.00 | 75 | 1003.6 |
| 20260505100204 | 52 | 339 | 1.7 | 8.7 | 0.00 | 0.00 | 0.00 | 76 | 1003.9 |
| 20260505100104 | 52 | 339 | 2.6 | 8.7 | 0.00 | 0.00 | 0.00 | 79 | 1003.7 |
| 20260505100004 | 52 | 337 | 2.6 | 8.7 | 0.00 | 0.00 | 0.00 | 79 | 1003.5 |
| 20260505095904 | 52 | 335 | 2.6 | 8.7 | 0.00 | 0.00 | 0.00 | 78 | 1003.7 |
| 20260505095804 | 52 | 351 | 1.7 | 8.7 | 0.00 | 0.00 | 0.00 | 78 | 1003.7 |
| 20260505095704 | 52 | 1 | 1.7 | 8.7 | 0.00 | 0.00 | 0.00 | 78 | 1003.6 |
| 20260505095604 | 51 | 9 | 1.7 | 8.7 | 0.00 | 0.00 | 0.00 | 78 | 1003.7 |
| 20260505095504 | 51 | 14 | 2.6 | 8.7 | 0.00 | 0.00 | 0.00 | 78 | 1003.6 |
| 20260505095404 | 52 | 17 | 2.6 | 8.7 | 0.00 | 0.00 | 0.00 | 77 | 1003.6 |
| 20260505095305 | 52 | 19 | 2.6 | 8.7 | 0.00 | 0.00 | 0.00 | 77 | 1003.6 |
| 20260505095204 | 53 | 18 | 1.7 | 8.7 | 0.00 | 0.00 | 0.00 | 76 | 1003.7 |
| 20260505095103 | 53 | 31 | 1.7 | 5.2 | 0.00 | 0.00 | 0.00 | 77 | 1003.7 |
| 20260505095004 | 53 | 33 | 1.7 | 5.2 | 0.00 | 0.00 | 0.00 | 78 | 1003.8 |
| 20260505094903 | 53 | 30 | 1.7 | 5.2 | 0.00 | 0.00 | 0.00 | 78 | 1003.5 |
| 20260505094804 | 52 | 30 | 1.7 | 5.2 | 0.00 | 0.00 | 0.00 | 79 | 1003.6 |
| 20260505094704 | 52 | 30 | 1.7 | 5.2 | 0.00 | 0.00 | 0.00 | 79 | 1003.6 |
| 20260505094604 | 52 | 28 | 1.7 | 5.2 | 0.00 | 0.00 | 0.00 | 78 | 1003.6 |
| 20260505094525 | 52 | 27 | 1.7 | 5.2 | 0.00 | 0.00 | 0.00 | 78 | 1003.6 |
| 20260505094404 | 52 | 18 | 1.7 | 3.5 | 0.00 | 0.00 | 0.00 | 77 | 1003.6 |
| 20260505094325 | 52 | 13 | 1.7 | 3.5 | 0.00 | 0.00 | 0.00 | 76 | 1003.7 |
| 20260505094225 | 53 | 21 | 1.7 | 3.5 | 0.00 | 0.00 | 0.00 | 76 | 1003.6 |
| 20260505094104 | 53 | 24 | 1.7 | 3.5 | 0.00 | 0.00 | 0.00 | 77 | 1003.7 |
| 20260505094003 | 53 | 24 | 1.7 | 3.5 | 0.00 | 0.00 | 0.00 | 78 | 1003.7 |
| 20260505093904 | 53 | 24 | 1.7 | 3.5 | 0.00 | 0.00 | 0.00 | 77 | 1003.7 |
| 20260505093804 | 53 | 19 | 1.7 | 3.5 | 0.00 | 0.00 | 0.00 | 78 | 1003.7 |
| 20260505093704 | 52 | 20 | 1.7 | 3.5 | 0.00 | 0.00 | 0.00 | 78 | 1003.6 |
| 20260505093604 | 52 | 22 | 1.7 | 3.5 | 0.00 | 0.00 | 0.00 | 80 | 1003.7 |
| 20260505093504 | 51 | 28 | 1.7 | 3.5 | 0.00 | 0.00 | 0.00 | 82 | 1003.7 |
| 20260505093404 | 51 | 29 | 1.7 | 3.5 | 0.00 | 0.00 | 0.00 | 82 | 1003.8 |
| 20260505093304 | 51 | 23 | 0.9 | 3.5 | 0.00 | 0.00 | 0.00 | 82 | 1003.8 |
| 20260505093204 | 51 | 26 | 0.9 | 3.5 | 0.00 | 0.00 | 0.00 | 81 | 1003.9 |
| 20260505093104 | 51 | 23 | 0.9 | 3.5 | 0.00 | 0.00 | 0.00 | 80 | 1003.8 |
| 20260505093004 | 52 | 20 | 0.9 | 3.5 | 0.00 | 0.00 | 0.00 | 81 | 1003.5 |
| 20260505092904 | 52 | 20 | 0.9 | 3.5 | 0.00 | 0.00 | 0.00 | 81 | 1003.9 |
| 20260505092804 | 52 | 29 | 0.9 | 3.5 | 0.00 | 0.00 | 0.00 | 81 | 1003.7 |
| 20260505092725 | 52 | 24 | 1.7 | 3.5 | 0.00 | 0.00 | 0.00 | 82 | 1004.1 |
| 20260505092603 | 52 | 24 | 0.9 | 6.1 | 0.00 | 0.00 | 0.00 | 82 | 1003.7 |
| 20260505092504 | 52 | 22 | 1.7 | 6.1 | 0.00 | 0.00 | 0.00 | 82 | 1003.9 |
| 20260505092403 | 51 | 25 | 1.7 | 6.1 | 0.00 | 0.00 | 0.00 | 82 | 1003.8 |
| 20260505092305 | 51 | 28 | 1.7 | 6.1 | 0.00 | 0.00 | 0.00 | 83 | 1003.7 |
| 20260505092204 | 51 | 24 | 1.7 | 6.1 | 0.00 | 0.00 | 0.00 | 82 | 1003.5 |
| 20260505092104 | 51 | 22 | 1.7 | 6.1 | 0.00 | 0.00 | 0.00 | 82 | 1003.8 |
| 20260505092004 | 51 | 21 | 1.7 | 6.1 | 0.00 | 0.00 | 0.00 | 82 | 1003.8 |
| 20260505091925 | 51 | 21 | 1.7 | 6.1 | 0.00 | 0.00 | 0.00 | 82 | 1003.9 |
| 20260505091804 | 51 | 22 | 1.7 | 6.1 | 0.00 | 0.00 | 0.00 | 82 | 1003.6 |
| 20260505091704 | 51 | 21 | 1.7 | 6.1 | 0.00 | 0.00 | 0.00 | 82 | 1003.8 |
| 20260505091604 | 51 | 21 | 1.7 | 6.1 | 0.00 | 0.00 | 0.00 | 82 | 1003.8 |
| 20260505091504 | 50 | 21 | 1.7 | 6.1 | 0.00 | 0.00 | 0.00 | 82 | 1003.6 |
| 20260505091425 | 50 | 22 | 1.7 | 6.1 | 0.00 | 0.00 | 0.00 | 82 | 1003.7 |
| 20260505091304 | 50 | 22 | 1.7 | 6.1 | 0.00 | 0.00 | 0.00 | 82 | 1003.8 |
| 20260505091204 | 50 | 22 | 1.7 | 6.1 | 0.00 | 0.00 | 0.00 | 83 | 1003.9 |
| 20260505091104 | 51 | 24 | 1.7 | 6.1 | 0.00 | 0.00 | 0.00 | 81 | 1003.6 |
| 20260505091004 | 51 | 26 | 1.7 | 6.1 | 0.00 | 0.00 | 0.00 | 82 | 1003.7 |
| 20260505090904 | 51 | 29 | 0.9 | 5.2 | 0.00 | 0.00 | 0.00 | 83 | 1003.7 |
| 20260505090804 | 51 | 28 | 0.9 | 5.2 | 0.00 | 0.00 | 0.00 | 83 | 1003.6 |
| 20260505090704 | 51 | 29 | 0.9 | 5.2 | 0.00 | 0.00 | 0.00 | 83 | 1003.7 |
| 20260505090625 | 51 | 29 | 0.9 | 5.2 | 0.00 | 0.00 | 0.00 | 83 | 1003.8 |
| 20260505090504 | 51 | 31 | 0.9 | 5.2 | 0.00 | 0.00 | 0.00 | 82 | 1004.0 |
| 20260505090425 | 51 | 32 | 0.9 | 5.2 | 0.00 | 0.00 | 0.00 | 83 | 1003.5 |
| 20260505090303 | 51 | 32 | 0.9 | 5.2 | 0.00 | 0.00 | 0.00 | 83 | 1003.9 |
| 20260505090204 | 51 | 30 | 0.9 | 5.2 | 0.00 | 0.00 | 0.00 | 83 | 1003.7 |
| 20260505090104 | 51 | 32 | 0.9 | 5.2 | 0.00 | 0.00 | 0.00 | 83 | 1003.7 |
| 20260505090004 | 51 | 32 | 0.9 | 5.2 | 0.00 | 0.00 | 0.00 | 83 | 1003.8 |
| 20260505085904 | 51 | 31 | 0.9 | 5.2 | 0.00 | 0.00 | 0.00 | 83 | 1003.7 |
| 20260505085804 | 51 | 21 | 0.9 | 5.2 | 0.00 | 0.00 | 0.00 | 82 | 1003.7 |
| 20260505085704 | 51 | 14 | 0.9 | 5.2 | 0.00 | 0.00 | 0.00 | 82 | 1003.8 |
| 20260505085604 | 51 | 10 | 0.9 | 5.2 | 0.00 | 0.00 | 0.00 | 81 | 1003.7 |
| 20260505085504 | 51 | 5 | 0.9 | 3.5 | 0.00 | 0.00 | 0.00 | 82 | 1003.8 |
| 20260505085404 | 51 | 344 | 0.9 | 3.5 | 0.00 | 0.00 | 0.00 | 82 | 1003.6 |
| 20260505085305 | 51 | 340 | 0.9 | 3.5 | 0.00 | 0.00 | 0.00 | 81 | 1003.8 |
| 20260505085204 | 51 | 342 | 0.9 | 3.5 | 0.00 | 0.00 | 0.00 | 81 | 1003.8 |
| 20260505085104 | 51 | 339 | 0.9 | 3.5 | 0.00 | 0.00 | 0.00 | 81 | 1003.7 |
| 20260505085004 | 51 | 348 | 0.9 | 3.5 | 0.00 | 0.00 | 0.00 | 81 | 1003.9 |
| 20260505084904 | 51 | 352 | 0.9 | 3.5 | 0.00 | 0.00 | 0.00 | 81 | 1003.8 |
| 20260505084804 | 51 | 354 | 0.9 | 3.5 | 0.00 | 0.00 | 0.00 | 82 | 1003.8 |
| 20260505084725 | 51 | 357 | 0.9 | 3.5 | 0.00 | 0.00 | 0.00 | 82 | 1003.6 |
| 20260505084604 | 51 | 356 | 1.7 | 3.5 | 0.00 | 0.00 | 0.00 | 82 | 1003.7 |
| 20260505084503 | 51 | 348 | 1.7 | 3.5 | 0.00 | 0.00 | 0.00 | 81 | 1003.7 |
| 20260505084404 | 51 | 357 | 0.9 | 3.5 | 0.00 | 0.00 | 0.00 | 82 | 1003.6 |
| 20260505084303 | 51 | 358 | 0.9 | 3.5 | 0.00 | 0.00 | 0.00 | 82 | 1003.7 |
| 20260505084204 | 51 | 358 | 0.9 | 3.5 | 0.00 | 0.00 | 0.00 | 83 | 1003.8 |
| 20260505084125 | 51 | 354 | 0.9 | 3.5 | 0.00 | 0.00 | 0.00 | 82 | 1003.8 |
| 20260505084004 | 51 | 7 | 0.9 | 5.2 | 0.00 | 0.00 | 0.00 | 83 | 1003.8 |
| 20260505083904 | 51 | 4 | 1.7 | 5.2 | 0.00 | 0.00 | 0.00 | 83 | 1003.6 |
| 20260505083804 | 51 | 6 | 1.7 | 5.2 | 0.00 | 0.00 | 0.00 | 83 | 1003.9 |
| 20260505083724 | 51 | 9 | 1.7 | 5.2 | 0.00 | 0.00 | 0.00 | 84 | 1003.7 |
| 20260505083625 | 51 | 14 | 1.7 | 5.2 | 0.00 | 0.00 | 0.00 | 84 | 1003.7 |
| 20260505083503 | 51 | 20 | 1.7 | 5.2 | 0.00 | 0.00 | 0.00 | 84 | 1003.9 |
| 20260505083425 | 51 | 20 | 1.7 | 5.2 | 0.00 | 0.00 | 0.00 | 84 | 1003.7 |
| 20260505083303 | 51 | 23 | 1.7 | 5.2 | 0.00 | 0.00 | 0.00 | 84 | 1003.9 |
| 20260505083204 | 51 | 25 | 1.7 | 5.2 | 0.00 | 0.00 | 0.00 | 84 | 1003.9 |
| 20260505083104 | 50 | 27 | 1.7 | 5.2 | 0.00 | 0.00 | 0.00 | 83 | 1004.0 |
| 20260505083004 | 50 | 28 | 1.7 | 5.2 | 0.00 | 0.00 | 0.00 | 83 | 1003.7 |
| 20260505082904 | 50 | 36 | 1.7 | 5.2 | 0.00 | 0.00 | 0.00 | 82 | 1003.9 |
| 20260505082804 | 50 | 35 | 2.6 | 5.2 | 0.00 | 0.00 | 0.00 | 82 | 1003.8 |
| 20260505082703 | 50 | 33 | 2.6 | 6.1 | 0.00 | 0.00 | 0.00 | 82 | 1003.9 |
| 20260505082625 | 50 | 34 | 2.6 | 6.1 | 0.00 | 0.00 | 0.00 | 81 | 1003.8 |
| 20260505082525 | 50 | 30 | 2.6 | 6.1 | 0.00 | 0.00 | 0.00 | 82 | 1003.8 |
| 20260505082404 | 50 | 29 | 2.6 | 6.1 | 0.00 | 0.00 | 0.00 | 82 | 1003.9 |
| 20260505082304 | 50 | 29 | 2.6 | 6.1 | 0.00 | 0.00 | 0.00 | 82 | 1003.7 |
| 20260505082225 | 50 | 27 | 2.6 | 6.1 | 0.00 | 0.00 | 0.00 | 82 | 1003.9 |
| 20260505082104 | 49 | 27 | 2.6 | 6.1 | 0.00 | 0.00 | 0.00 | 81 | 1004.0 |
| 20260505082004 | 49 | 22 | 2.6 | 6.1 | 0.00 | 0.00 | 0.00 | 81 | 1004.0 |
| 20260505081904 | 49 | 17 | 2.6 | 6.1 | 0.00 | 0.00 | 0.00 | 81 | 1004.0 |
| 20260505081804 | 49 | 17 | 2.6 | 6.1 | 0.00 | 0.00 | 0.00 | 82 | 1003.9 |
| 20260505081704 | 50 | 16 | 2.6 | 6.1 | 0.00 | 0.00 | 0.00 | 82 | 1003.8 |
| 20260505081604 | 50 | 19 | 2.6 | 6.1 | 0.00 | 0.00 | 0.00 | 83 | 1003.9 |
| 20260505081504 | 49 | 18 | 2.6 | 6.1 | 0.00 | 0.00 | 0.00 | 84 | 1003.9 |
| 20260505081404 | 49 | 20 | 2.6 | 6.1 | 0.00 | 0.00 | 0.00 | 83 | 1003.9 |
| 20260505081304 | 49 | 23 | 2.6 | 6.1 | 0.00 | 0.00 | 0.00 | 83 | 1003.9 |
| 20260505081204 | 49 | 23 | 2.6 | 6.1 | 0.00 | 0.00 | 0.00 | 82 | 1003.8 |
| 20260505081104 | 49 | 22 | 2.6 | 6.1 | 0.00 | 0.00 | 0.00 | 82 | 1003.8 |
| 20260505081003 | 49 | 24 | 2.6 | 6.1 | 0.00 | 0.00 | 0.00 | 82 | 1003.8 |
| 20260505080904 | 49 | 25 | 2.6 | 6.1 | 0.00 | 0.00 | 0.00 | 83 | 1003.8 |
| 20260505080803 | 49 | 28 | 2.6 | 6.1 | 0.00 | 0.00 | 0.00 | 82 | 1003.9 |
| 20260505080704 | 49 | 27 | 2.6 | 7.0 | 0.00 | 0.00 | 0.00 | 83 | 1003.9 |
| 20260505080604 | 49 | 25 | 2.6 | 7.0 | 0.00 | 0.00 | 0.00 | 83 | 1003.8 |
| 20260505080504 | 49 | 25 | 2.6 | 7.0 | 0.00 | 0.00 | 0.00 | 83 | 1003.8 |
| 20260505080403 | 49 | 22 | 2.6 | 7.0 | 0.00 | 0.00 | 0.00 | 83 | 1003.9 |
| 20260505080304 | 49 | 20 | 3.5 | 7.0 | 0.00 | 0.00 | 0.00 | 83 | 1003.9 |
| 20260505080203 | 49 | 18 | 3.5 | 7.8 | 0.00 | 0.00 | 0.00 | 83 | 1003.7 |
| 20260505080104 | 49 | 19 | 3.5 | 7.8 | 0.00 | 0.00 | 0.00 | 83 | 1003.7 |
| 20260505080004 | 49 | 17 | 3.5 | 7.8 | 0.00 | 0.00 | 0.00 | 83 | 1003.8 |
| 20260505075904 | 49 | 19 | 3.5 | 7.8 | 0.00 | 0.00 | 0.00 | 83 | 1003.9 |
| 20260505075803 | 49 | 20 | 3.5 | 7.8 | 0.00 | 0.00 | 0.00 | 83 | 1003.9 |
| 20260505075704 | 49 | 25 | 3.5 | 7.8 | 0.00 | 0.00 | 0.00 | 83 | 1004.0 |
| 20260505075603 | 49 | 25 | 3.5 | 7.8 | 0.00 | 0.00 | 0.00 | 83 | 1004.0 |
| 20260505075504 | 49 | 28 | 3.5 | 7.8 | 0.00 | 0.00 | 0.00 | 83 | 1003.9 |
| 20260505075404 | 49 | 32 | 3.5 | 7.8 | 0.00 | 0.00 | 0.00 | 83 | 1003.7 |
| 20260505075304 | 49 | 34 | 3.5 | 7.8 | 0.00 | 0.00 | 0.00 | 83 | 1003.7 |
| 20260505075204 | 49 | 33 | 3.5 | 7.8 | 0.00 | 0.00 | 0.00 | 82 | 1004.1 |
| 20260505075104 | 49 | 33 | 3.5 | 7.8 | 0.00 | 0.00 | 0.00 | 82 | 1003.9 |
| 20260505075003 | 49 | 36 | 3.5 | 7.8 | 0.00 | 0.00 | 0.00 | 82 | 1003.8 |
| 20260505074904 | 49 | 35 | 3.5 | 7.8 | 0.00 | 0.00 | 0.00 | 82 | 1003.9 |
| 20260505074804 | 49 | 35 | 3.5 | 7.8 | 0.00 | 0.00 | 0.00 | 82 | 1003.7 |
| 20260505074704 | 49 | 31 | 3.5 | 7.8 | 0.00 | 0.00 | 0.00 | 82 | 1003.7 |
| 20260505074604 | 49 | 33 | 2.6 | 7.8 | 0.00 | 0.00 | 0.00 | 82 | 1003.8 |
| 20260505074504 | 49 | 33 | 2.6 | 7.0 | 0.00 | 0.00 | 0.00 | 83 | 1003.6 |
| 20260505074424 | 49 | 32 | 2.6 | 7.0 | 0.00 | 0.00 | 0.00 | 83 | 1003.8 |
| 20260505074304 | 49 | 33 | 2.6 | 7.0 | 0.00 | 0.00 | 0.00 | 83 | 1004.1 |
| 20260505074204 | 49 | 34 | 2.6 | 7.0 | 0.00 | 0.00 | 0.00 | 84 | 1003.9 |
| 20260505074104 | 49 | 33 | 2.6 | 7.0 | 0.00 | 0.00 | 0.00 | 84 | 1003.9 |
| 20260505074004 | 49 | 31 | 2.6 | 5.2 | 0.00 | 0.00 | 0.00 | 85 | 1003.8 |
| 20260505073904 | 49 | 31 | 2.6 | 5.2 | 0.00 | 0.00 | 0.00 | 86 | 1003.9 |
| 20260505073804 | 48 | 32 | 2.6 | 5.2 | 0.00 | 0.00 | 0.00 | 86 | 1003.7 |
| 20260505073703 | 48 | 31 | 2.6 | 5.2 | 0.00 | 0.00 | 0.00 | 87 | 1003.7 |
| 20260505073604 | 48 | 33 | 2.6 | 5.2 | 0.00 | 0.00 | 0.00 | 87 | 1003.7 |
| 20260505073504 | 48 | 30 | 2.6 | 7.0 | 0.00 | 0.00 | 0.00 | 88 | 1003.8 |
| 20260505073404 | 48 | 30 | 2.6 | 7.0 | 0.00 | 0.00 | 0.00 | 88 | 1003.9 |
| 20260505073303 | 48 | 24 | 2.6 | 7.8 | 0.00 | 0.00 | 0.00 | 89 | 1003.6 |
| 20260505073204 | 48 | 24 | 3.5 | 7.8 | 0.00 | 0.00 | 0.00 | 89 | 1004.0 |
| 20260505073103 | 48 | 25 | 3.5 | 7.8 | 0.00 | 0.00 | 0.00 | 89 | 1004.0 |
| 20260505073004 | 48 | 28 | 2.6 | 7.8 | 0.00 | 0.00 | 0.00 | 90 | 1003.9 |
| 20260505072903 | 48 | 27 | 2.6 | 7.8 | 0.00 | 0.00 | 0.00 | 90 | 1003.8 |
| 20260505072825 | 48 | 26 | 2.6 | 7.8 | 0.00 | 0.00 | 0.00 | 90 | 1003.9 |
| 20260505072703 | 48 | 25 | 3.5 | 11.3 | 0.00 | 0.00 | 0.00 | 90 | 1003.6 |
| 20260505072625 | 48 | 21 | 3.5 | 11.3 | 0.00 | 0.00 | 0.00 | 90 | 1003.9 |
| 20260505072503 | 48 | 21 | 3.5 | 11.3 | 0.00 | 0.00 | 0.00 | 90 | 1003.9 |
| 20260505072404 | 48 | 23 | 3.5 | 11.3 | 0.00 | 0.00 | 0.00 | 90 | 1003.8 |
| 20260505072305 | 48 | 24 | 3.5 | 11.3 | 0.00 | 0.00 | 0.00 | 90 | 1003.7 |
| 20260505072225 | 48 | 24 | 3.5 | 11.3 | 0.00 | 0.00 | 0.00 | 90 | 1003.6 |
| 20260505072104 | 48 | 25 | 3.5 | 11.3 | 0.00 | 0.00 | 0.00 | 91 | 1003.8 |
| 20260505072004 | 48 | 24 | 3.5 | 11.3 | 0.00 | 0.00 | 0.00 | 91 | 1003.9 |
| 20260505071925 | 48 | 27 | 3.5 | 11.3 | 0.00 | 0.00 | 0.00 | 91 | 1003.8 |
| 20260505071804 | 48 | 24 | 4.3 | 11.3 | 0.00 | 0.00 | 0.00 | 91 | 1003.9 |
| 20260505071703 | 48 | 25 | 4.3 | 11.3 | 0.00 | 0.00 | 0.00 | 90 | 1004.0 |
| 20260505071604 | 48 | 28 | 3.5 | 8.7 | 0.00 | 0.00 | 0.00 | 90 | 1003.9 |
| 20260505071524 | 48 | 27 | 3.5 | 8.7 | 0.00 | 0.00 | 0.00 | 90 | 1003.8 |
| 20260505071404 | 48 | 24 | 3.5 | 8.7 | 0.00 | 0.00 | 0.00 | 90 | 1003.7 |
| 20260505071304 | 48 | 23 | 3.5 | 8.7 | 0.00 | 0.00 | 0.00 | 90 | 1004.0 |
| 20260505071203 | 48 | 24 | 3.5 | 8.7 | 0.00 | 0.00 | 0.00 | 90 | 1003.9 |
| 20260505071104 | 48 | 22 | 3.5 | 8.7 | 0.00 | 0.00 | 0.00 | 90 | 1004.0 |
| 20260505071003 | 48 | 25 | 3.5 | 8.7 | 0.00 | 0.00 | 0.00 | 90 | 1003.5 |
| 20260505070904 | 48 | 28 | 3.5 | 7.8 | 0.00 | 0.00 | 0.00 | 89 | 1003.7 |
| 20260505070803 | 48 | 27 | 3.5 | 7.8 | 0.00 | 0.00 | 0.00 | 89 | 1003.7 |
| 20260505070704 | 49 | 31 | 2.6 | 7.8 | 0.00 | 0.00 | 0.00 | 89 | 1003.9 |
| 20260505070604 | 49 | 31 | 2.6 | 7.8 | 0.00 | 0.00 | 0.00 | 89 | 1003.7 |
| 20260505070525 | 48 | 31 | 2.6 | 6.1 | 0.00 | 0.00 | 0.00 | 90 | 1003.8 |
| 20260505070403 | 48 | 31 | 2.6 | 6.1 | 0.00 | 0.00 | 0.00 | 89 | 1003.6 |
| 20260505070325 | 48 | 30 | 2.6 | 6.1 | 0.00 | 0.00 | 0.00 | 89 | 1003.8 |
| 20260505070203 | 48 | 30 | 2.6 | 6.1 | 0.00 | 0.00 | 0.00 | 89 | 1003.7 |
| 20260505070104 | 49 | 31 | 2.6 | 6.1 | 0.00 | 0.00 | 0.00 | 89 | 1003.8 |
| 20260505070004 | 49 | 27 | 2.6 | 6.1 | 0.00 | 0.00 | 0.00 | 89 | 1003.8 |
| 20260505065904 | 49 | 19 | 2.6 | 6.1 | 0.00 | 0.00 | 0.00 | 90 | 1003.7 |
| 20260505065804 | 49 | 24 | 2.6 | 6.1 | 0.00 | 0.00 | 0.00 | 90 | 1003.6 |
| 20260505065704 | 49 | 23 | 2.6 | 6.1 | 0.00 | 0.00 | 0.00 | 90 | 1003.7 |
| 20260505065603 | 49 | 22 | 2.6 | 6.1 | 0.00 | 0.00 | 0.00 | 90 | 1003.7 |
| 20260505065504 | 49 | 26 | 2.6 | 5.2 | 0.00 | 0.00 | 0.00 | 90 | 1003.6 |
| 20260505065404 | 49 | 25 | 2.6 | 5.2 | 0.00 | 0.00 | 0.00 | 90 | 1003.6 |
| 20260505065304 | 48 | 26 | 1.7 | 5.2 | 0.00 | 0.00 | 0.00 | 90 | 1003.5 |
| 20260505065204 | 48 | 29 | 1.7 | 5.2 | 0.00 | 0.00 | 0.00 | 90 | 1003.9 |
| 20260505065104 | 48 | 31 | 1.7 | 5.2 | 0.00 | 0.00 | 0.00 | 90 | 1003.7 |
| 20260505065003 | 48 | 33 | 1.7 | 5.2 | 0.00 | 0.00 | 0.00 | 90 | 1003.7 |
| 20260505064904 | 48 | 34 | 1.7 | 5.2 | 0.00 | 0.00 | 0.00 | 90 | 1003.6 |
| 20260505064803 | 48 | 34 | 1.7 | 5.2 | 0.00 | 0.00 | 0.00 | 90 | 1003.7 |
| 20260505064704 | 48 | 32 | 1.7 | 5.2 | 0.00 | 0.00 | 0.00 | 90 | 1003.7 |
| 20260505064603 | 48 | 35 | 1.7 | 5.2 | 0.00 | 0.00 | 0.00 | 90 | 1003.8 |
| 20260505064525 | 48 | 32 | 1.7 | 5.2 | 0.00 | 0.00 | 0.00 | 90 | 1003.7 |
| 20260505064425 | 48 | 39 | 1.7 | 3.5 | 0.00 | 0.00 | 0.00 | 90 | 1003.8 |
| 20260505064324 | 48 | 41 | 1.7 | 3.5 | 0.00 | 0.00 | 0.00 | 90 | 1003.9 |
| 20260505064204 | 48 | 36 | 1.7 | 3.5 | 0.00 | 0.00 | 0.00 | 90 | 1003.6 |
| 20260505064103 | 48 | 32 | 1.7 | 3.5 | 0.00 | 0.00 | 0.00 | 90 | 1003.8 |
| 20260505064004 | 48 | 34 | 1.7 | 3.5 | 0.00 | 0.00 | 0.00 | 90 | 1003.5 |
| 20260505063924 | 48 | 33 | 1.7 | 3.5 | 0.00 | 0.00 | 0.00 | 90 | 1003.7 |
| 20260505063825 | 48 | 32 | 1.7 | 3.5 | 0.00 | 0.00 | 0.00 | 90 | 1003.7 |
| 20260505063703 | 48 | 36 | 1.7 | 3.5 | 0.00 | 0.00 | 0.00 | 90 | 1003.6 |
| 20260505063604 | 48 | 42 | 1.7 | 7.0 | 0.00 | 0.00 | 0.00 | 89 | 1003.7 |
| 20260505063503 | 48 | 35 | 1.7 | 7.0 | 0.00 | 0.00 | 0.00 | 89 | 1003.9 |
| 20260505063403 | 48 | 33 | 1.7 | 7.0 | 0.00 | 0.00 | 0.00 | 89 | 1003.9 |
| 20260505063304 | 48 | 35 | 1.7 | 7.0 | 0.00 | 0.00 | 0.00 | 89 | 1003.6 |
| 20260505063203 | 48 | 33 | 1.7 | 7.0 | 0.00 | 0.00 | 0.00 | 89 | 1003.7 |
| 20260505063104 | 48 | 32 | 1.7 | 7.0 | 0.00 | 0.00 | 0.00 | 89 | 1003.7 |
| 20260505063024 | 48 | 30 | 1.7 | 7.0 | 0.00 | 0.00 | 0.00 | 89 | 1003.5 |
| 20260505062904 | 48 | 29 | 1.7 | 7.0 | 0.00 | 0.00 | 0.00 | 89 | 1004.0 |
| 20260505062803 | 48 | 25 | 1.7 | 7.0 | 0.00 | 0.00 | 0.00 | 89 | 1003.8 |
| 20260505062704 | 48 | 14 | 1.7 | 7.0 | 0.00 | 0.00 | 0.00 | 89 | 1003.9 |
| 20260505062625 | 48 | 12 | 1.7 | 7.0 | 0.00 | 0.00 | 0.00 | 89 | 1003.7 |
| 20260505062504 | 48 | 15 | 1.7 | 5.2 | 0.00 | 0.00 | 0.00 | 89 | 1003.6 |
| 20260505062424 | 48 | 19 | 1.7 | 5.2 | 0.00 | 0.00 | 0.00 | 89 | 1003.6 |
| 20260505062325 | 48 | 23 | 1.7 | 5.2 | 0.00 | 0.00 | 0.00 | 89 | 1003.6 |
| 20260505062203 | 49 | 11 | 0.9 | 5.2 | 0.00 | 0.00 | 0.00 | 89 | 1003.7 |
| 20260505062104 | 49 | 8 | 0.9 | 5.2 | 0.00 | 0.00 | 0.00 | 89 | 1003.6 |
| 20260505062025 | 49 | 4 | 0.9 | 5.2 | 0.00 | 0.00 | 0.00 | 89 | 1003.7 |
| 20260505061904 | 49 | 353 | 0.9 | 5.2 | 0.00 | 0.00 | 0.00 | 89 | 1003.6 |
| 20260505061825 | 49 | 1 | 0.9 | 5.2 | 0.00 | 0.00 | 0.00 | 89 | 1003.6 |
| 20260505061704 | 49 | 353 | 0.9 | 3.5 | 0.00 | 0.00 | 0.00 | 89 | 1003.8 |
| 20260505061603 | 49 | 343 | 0.9 | 3.5 | 0.00 | 0.00 | 0.00 | 89 | 1003.5 |
| 20260505061504 | 49 | 334 | 0.9 | 3.5 | 0.00 | 0.00 | 0.00 | 89 | 1003.7 |
| 20260505061404 | 49 | 329 | 0.9 | 3.5 | 0.00 | 0.00 | 0.00 | 89 | 1003.5 |
| 20260505061304 | 49 | 323 | 1.7 | 3.5 | 0.00 | 0.00 | 0.00 | 89 | 1003.5 |
| 20260505061204 | 49 | 323 | 1.7 | 3.5 | 0.00 | 0.00 | 0.00 | 89 | 1003.6 |
| 20260505061125 | 49 | 318 | 1.7 | 3.5 | 0.00 | 0.00 | 0.00 | 89 | 1003.4 |
| 20260505061004 | 49 | 313 | 1.7 | 3.5 | 0.00 | 0.00 | 0.00 | 89 | 1003.5 |
| 20260505060904 | 49 | 308 | 0.9 | 3.5 | 0.00 | 0.00 | 0.00 | 89 | 1003.4 |
| 20260505060803 | 49 | 294 | 0.9 | 3.5 | 0.00 | 0.00 | 0.00 | 89 | 1003.3 |
| 20260505060704 | 49 | 302 | 0.9 | 2.6 | 0.00 | 0.00 | 0.00 | 89 | 1003.2 |
| 20260505060604 | 49 | 302 | 0.9 | 2.6 | 0.00 | 0.00 | 0.00 | 89 | 1003.3 |
| 20260505060504 | 49 | 311 | 0.9 | 2.6 | 0.00 | 0.00 | 0.00 | 89 | 1003.4 |
| 20260505060404 | 49 | 311 | 0.9 | 2.6 | 0.00 | 0.00 | 0.00 | 89 | 1003.4 |
| 20260505060304 | 49 | 316 | 0.9 | 2.6 | 0.00 | 0.00 | 0.00 | 89 | 1003.4 |
| 20260505060203 | 49 | 326 | 0.9 | 2.6 | 0.00 | 0.00 | 0.00 | 89 | 1003.2 |
| 20260505060104 | 49 | 340 | 0.9 | 2.6 | 0.00 | 0.00 | 0.00 | 89 | 1003.3 |
| 20260505060004 | 49 | 342 | 0.9 | 2.6 | 0.00 | 0.00 | 0.00 | 90 | 1003.4 |
| 20260505055904 | 49 | 337 | 0.9 | 2.6 | 0.00 | 0.00 | 0.00 | 91 | 1003.5 |
| 20260505055804 | 49 | 351 | 0.9 | 3.5 | 0.00 | 0.00 | 0.00 | 91 | 1003.5 |
| 20260505055703 | 49 | 350 | 0.9 | 3.5 | 0.00 | 0.00 | 0.00 | 92 | 1003.4 |
| 20260505055604 | 49 | 351 | 0.9 | 3.5 | 0.00 | 0.00 | 0.00 | 92 | 1003.5 |
| 20260505055503 | 49 | 351 | 0.9 | 3.5 | 0.00 | 0.00 | 0.00 | 93 | 1003.4 |
| 20260505055404 | 48 | 353 | 0.9 | 3.5 | 0.00 | 0.00 | 0.00 | 93 | 1003.3 |
| 20260505055304 | 48 | 358 | 0.9 | 3.5 | 0.00 | 0.00 | 0.00 | 93 | 1003.4 |
| 20260505055204 | 48 | 357 | 0.9 | 3.5 | 0.00 | 0.00 | 0.00 | 93 | 1003.3 |
| 20260505055103 | 48 | 356 | 0.9 | 3.5 | 0.00 | 0.00 | 0.00 | 93 | 1003.5 |
| 20260505055004 | 48 | 357 | 0.9 | 3.5 | 0.00 | 0.00 | 0.00 | 93 | 1003.5 |
| 20260505054903 | 48 | 358 | 0.9 | 3.5 | 0.00 | 0.00 | 0.00 | 93 | 1003.4 |
| 20260505054804 | 48 | 358 | 0.9 | 3.5 | 0.00 | 0.00 | 0.00 | 93 | 1003.3 |
| 20260505054703 | 47 | 359 | 1.7 | 3.5 | 0.00 | 0.00 | 0.00 | 93 | 1003.5 |
| 20260505054604 | 47 | 357 | 0.9 | 3.5 | 0.00 | 0.00 | 0.00 | 93 | 1003.2 |
| 20260505054504 | 47 | 354 | 0.9 | 3.5 | 0.00 | 0.00 | 0.00 | 94 | 1003.5 |
| 20260505054404 | 47 | 353 | 0.9 | 3.5 | 0.00 | 0.00 | 0.00 | 93 | 1003.6 |
| 20260505054303 | 47 | 352 | 0.9 | 3.5 | 0.00 | 0.00 | 0.00 | 94 | 1003.4 |
| 20260505054204 | 47 | 345 | 0.9 | 3.5 | 0.00 | 0.00 | 0.00 | 94 | 1003.3 |
| 20260505054124 | 47 | 337 | 0.9 | 3.5 | 0.00 | 0.00 | 0.00 | 94 | 1003.4 |
| 20260505054004 | 47 | 304 | 0.9 | 3.5 | 0.00 | 0.00 | 0.00 | 94 | 1003.5 |
| 20260505053924 | 47 | 295 | 0.9 | 3.5 | 0.00 | 0.00 | 0.00 | 94 | 1003.3 |
| 20260505053804 | 47 | 259 | 0.0 | 3.5 | 0.00 | 0.00 | 0.00 | 94 | 1003.3 |
| 20260505053703 | 47 | 246 | 0.0 | 1.7 | 0.00 | 0.00 | 0.00 | 94 | 1003.3 |
| 20260505053604 | 47 | 250 | 0.0 | 1.7 | 0.00 | 0.00 | 0.00 | 94 | 1003.4 |
| 20260505053503 | 47 | 263 | 0.0 | 1.7 | 0.00 | 0.00 | 0.00 | 94 | 1003.5 |
| 20260505053425 | 47 | 275 | 0.0 | 1.7 | 0.00 | 0.00 | 0.00 | 94 | 1003.4 |
| 20260505053304 | 47 | 296 | 0.0 | 1.7 | 0.00 | 0.00 | 0.00 | 94 | 1003.3 |
| 20260505053204 | 47 | 323 | 0.0 | 1.7 | 0.00 | 0.00 | 0.00 | 94 | 1003.1 |
| 20260505053104 | 47 | 346 | 0.0 | 1.7 | 0.00 | 0.00 | 0.00 | 94 | 1003.2 |
| 20260505053004 | 47 | 360 | 0.0 | 0.9 | 0.00 | 0.00 | 0.00 | 94 | 1003.3 |
| 20260505052904 | 47 | 360 | 0.0 | 0.9 | 0.00 | 0.00 | 0.00 | 94 | 1003.3 |
| 20260505052825 | 47 | 360 | 0.0 | 0.9 | 0.00 | 0.00 | 0.00 | 94 | 1003.4 |
| 20260505052725 | 47 | 360 | 0.0 | 0.9 | 0.00 | 0.00 | 0.00 | 94 | 1003.1 |
| 20260505052603 | 47 | 360 | 0.0 | 1.7 | 0.00 | 0.00 | 0.00 | 94 | 1003.2 |
| 20260505052504 | 47 | 360 | 0.0 | 1.7 | 0.00 | 0.00 | 0.00 | 94 | 1003.3 |
| 20260505052403 | 47 | 360 | 0.0 | 1.7 | 0.00 | 0.00 | 0.00 | 94 | 1003.3 |
| 20260505052304 | 47 | 360 | 0.0 | 1.7 | 0.00 | 0.00 | 0.00 | 94 | 1003.2 |
| 20260505052203 | 47 | 360 | 0.0 | 1.7 | 0.00 | 0.00 | 0.00 | 94 | 1003.3 |
| 20260505052104 | 47 | 360 | 0.0 | 1.7 | 0.00 | 0.00 | 0.00 | 94 | 1003.3 |
| 20260505052024 | 47 | 360 | 0.0 | 1.7 | 0.00 | 0.00 | 0.00 | 94 | 1003.2 |